Wetterdaten: Donnerstag, 21.07.2016
Datum Zeit Temp. A. Feuchte A. Luftdruck Regen Wind Richtung Richtung Sonnenschein ET UV Solar Taupunkt Windchill Windben Empfang
21.07.2016 00:00 18,4 C 86 % 1014,3 hPa 0,0 l/m 0,0 km/h (0 Bft) O 94 0 min 0,000 mm 0,0 UV-I 0 W/m 16,0 C 18,4 C 0,0 km/h (0 Bft) 100,00 %
21.07.2016 00:02 18,3 C 86 % 1014,3 hPa 0,0 l/m 0,1 km/h (0 Bft) O 94 0 min 0,000 mm 0,0 UV-I 0 W/m 15,9 C 18,3 C 1,6 km/h (1 Bft) 100,00 %
21.07.2016 00:04 18,3 C 86 % 1014,3 hPa 0,0 l/m 0,1 km/h (0 Bft) O 94 0 min 0,000 mm 0,0 UV-I 0 W/m 15,9 C 18,3 C 1,6 km/h (1 Bft) 100,00 %
21.07.2016 00:06 18,2 C 86 % 1014,3 hPa 0,0 l/m 0,5 km/h (0 Bft) O 94 0 min 0,000 mm 0,0 UV-I 0 W/m 15,8 C 18,2 C 1,6 km/h (1 Bft) 97,87 %
21.07.2016 00:08 18,2 C 86 % 1014,3 hPa 0,0 l/m 0,0 km/h (0 Bft) O 94 0 min 0,000 mm 0,0 UV-I 0 W/m 15,8 C 18,2 C 1,6 km/h (1 Bft) 100,00 %
21.07.2016 00:10 18,1 C 86 % 1014,4 hPa 0,0 l/m 2,2 km/h (1 Bft) NO 45 0 min 0,000 mm 0,0 UV-I 0 W/m 15,7 C 18,1 C 6,4 km/h (2 Bft) 97,87 %
21.07.2016 00:12 18,1 C 86 % 1014,3 hPa 0,0 l/m 2,4 km/h (1 Bft) NO 45 0 min 0,000 mm 0,0 UV-I 0 W/m 15,7 C 18,1 C 4,8 km/h (1 Bft) 98,00 %
21.07.2016 00:14 18,1 C 87 % 1014,3 hPa 0,0 l/m 0,1 km/h (0 Bft) NO 45 0 min 0,000 mm 0,0 UV-I 0 W/m 15,9 C 18,1 C 1,6 km/h (1 Bft) 97,87 %
21.07.2016 00:16 18,2 C 87 % 1014,4 hPa 0,0 l/m 2,0 km/h (1 Bft) O-SO 109 0 min 0,000 mm 0,0 UV-I 0 W/m 16,0 C 18,2 C 3,2 km/h (1 Bft) 100,00 %
21.07.2016 00:18 18,2 C 86 % 1014,4 hPa 0,0 l/m 1,5 km/h (1 Bft) O-SO 109 0 min 0,000 mm 0,0 UV-I 0 W/m 15,8 C 18,2 C 3,2 km/h (1 Bft) 100,00 %
21.07.2016 00:20 18,2 C 86 % 1014,5 hPa 0,0 l/m 2,4 km/h (1 Bft) O-SO 109 0 min 0,000 mm 0,0 UV-I 0 W/m 15,8 C 18,2 C 3,2 km/h (1 Bft) 100,00 %
21.07.2016 00:22 18,1 C 86 % 1014,5 hPa 0,0 l/m 3,9 km/h (1 Bft) S 177 0 min 0,000 mm 0,0 UV-I 0 W/m 15,7 C 18,1 C 6,4 km/h (2 Bft) 100,00 %
21.07.2016 00:24 17,9 C 87 % 1014,5 hPa 0,0 l/m 3,3 km/h (1 Bft) S 177 0 min 0,000 mm 0,0 UV-I 0 W/m 15,7 C 17,9 C 4,8 km/h (1 Bft) 100,00 %
21.07.2016 00:26 17,9 C 87 % 1014,4 hPa 0,0 l/m 3,0 km/h (1 Bft) S 177 0 min 0,000 mm 0,0 UV-I 0 W/m 15,7 C 17,9 C 4,8 km/h (1 Bft) 97,87 %
21.07.2016 00:28 17,9 C 87 % 1014,5 hPa 0,0 l/m 2,3 km/h (1 Bft) S 177 0 min 0,000 mm 0,0 UV-I 0 W/m 15,7 C 17,9 C 3,2 km/h (1 Bft) 100,00 %
21.07.2016 00:30 17,8 C 87 % 1014,4 hPa 0,0 l/m 0,6 km/h (0 Bft) S 177 0 min 0,000 mm 0,0 UV-I 0 W/m 15,6 C 17,8 C 1,6 km/h (1 Bft) 97,87 %
21.07.2016 00:32 17,8 C 87 % 1014,4 hPa 0,0 l/m 2,7 km/h (1 Bft) S 177 0 min 0,000 mm 0,0 UV-I 0 W/m 15,6 C 17,8 C 3,2 km/h (1 Bft) 100,00 %
21.07.2016 00:34 17,8 C 87 % 1014,4 hPa 0,0 l/m 1,2 km/h (1 Bft) S 177 0 min 0,000 mm 0,0 UV-I 0 W/m 15,6 C 17,8 C 3,2 km/h (1 Bft) 100,00 %
21.07.2016 00:36 17,8 C 87 % 1014,4 hPa 0,0 l/m 0,2 km/h (0 Bft) S 177 0 min 0,000 mm 0,0 UV-I 0 W/m 15,6 C 17,8 C 1,6 km/h (1 Bft) 100,00 %
21.07.2016 00:38 17,8 C 87 % 1014,3 hPa 0,0 l/m 0,4 km/h (0 Bft) S 177 0 min 0,000 mm 0,0 UV-I 0 W/m 15,6 C 17,8 C 1,6 km/h (1 Bft) 100,00 %
21.07.2016 00:40 18,0 C 86 % 1014,3 hPa 0,0 l/m 0,9 km/h (0 Bft) S 177 0 min 0,000 mm 0,0 UV-I 0 W/m 15,6 C 18,0 C 1,6 km/h (1 Bft) 95,74 %
21.07.2016 00:42 18,2 C 86 % 1014,3 hPa 0,0 l/m 1,8 km/h (1 Bft) S 177 0 min 0,000 mm 0,0 UV-I 0 W/m 15,8 C 18,2 C 3,2 km/h (1 Bft) 100,00 %
21.07.2016 00:44 18,2 C 85 % 1014,3 hPa 0,0 l/m 1,4 km/h (1 Bft) S 177 0 min 0,000 mm 0,0 UV-I 0 W/m 15,6 C 18,2 C 3,2 km/h (1 Bft) 100,00 %
21.07.2016 00:46 18,3 C 84 % 1014,4 hPa 0,0 l/m 0,3 km/h (0 Bft) S 177 0 min 0,000 mm 0,0 UV-I 0 W/m 15,5 C 18,3 C 1,6 km/h (1 Bft) 97,87 %
21.07.2016 00:48 18,4 C 84 % 1014,3 hPa 0,0 l/m 0,4 km/h (0 Bft) S 177 0 min 0,000 mm 0,0 UV-I 0 W/m 15,6 C 18,4 C 1,6 km/h (1 Bft) 100,00 %
21.07.2016 00:50 18,5 C 83 % 1014,4 hPa 0,0 l/m 0,4 km/h (0 Bft) S 177 0 min 0,000 mm 0,0 UV-I 0 W/m 15,6 C 18,5 C 1,6 km/h (1 Bft) 98,00 %
21.07.2016 00:52 18,6 C 83 % 1014,4 hPa 0,0 l/m 0,5 km/h (0 Bft) S 177 0 min 0,000 mm 0,0 UV-I 0 W/m 15,7 C 18,6 C 1,6 km/h (1 Bft) 100,00 %
21.07.2016 00:54 18,6 C 82 % 1014,4 hPa 0,0 l/m 0,7 km/h (0 Bft) S 177 0 min 0,000 mm 0,0 UV-I 0 W/m 15,5 C 18,6 C 1,6 km/h (1 Bft) 97,87 %
21.07.2016 00:56 18,6 C 82 % 1014,4 hPa 0,0 l/m 1,0 km/h (0 Bft) S 177 0 min 0,000 mm 0,0 UV-I 0 W/m 15,5 C 18,6 C 3,2 km/h (1 Bft) 97,87 %
21.07.2016 00:58 18,5 C 82 % 1014,3 hPa 0,0 l/m 0,3 km/h (0 Bft) S 177 0 min 0,000 mm 0,0 UV-I 0 W/m 15,4 C 18,5 C 1,6 km/h (1 Bft) 98,00 %
21.07.2016 01:00 18,5 C 82 % 1014,4 hPa 0,0 l/m 0,0 km/h (0 Bft) S 177 0 min 0,000 mm 0,0 UV-I 0 W/m 15,4 C 18,5 C 1,6 km/h (1 Bft) 97,87 %
21.07.2016 01:02 18,4 C 82 % 1014,4 hPa 0,0 l/m 0,0 km/h (0 Bft) S 177 0 min 0,000 mm 0,0 UV-I 0 W/m 15,3 C 18,4 C 0,0 km/h (0 Bft) 97,87 %
21.07.2016 01:04 18,3 C 83 % 1014,3 hPa 0,0 l/m 0,0 km/h (0 Bft) S 177 0 min 0,000 mm 0,0 UV-I 0 W/m 15,4 C 18,3 C 0,0 km/h (0 Bft) 97,44 %
21.07.2016 01:06 18,2 C 83 % 1014,3 hPa 0,0 l/m 0,1 km/h (0 Bft) S 177 0 min 0,000 mm 0,0 UV-I 0 W/m 15,3 C 18,2 C 1,6 km/h (1 Bft) 95,74 %
21.07.2016 01:08 18,0 C 84 % 1014,3 hPa 0,0 l/m 0,5 km/h (0 Bft) S 177 0 min 0,000 mm 0,0 UV-I 0 W/m 15,3 C 18,0 C 1,6 km/h (1 Bft) 96,00 %
21.07.2016 01:10 17,8 C 86 % 1014,4 hPa 0,0 l/m 0,0 km/h (0 Bft) S 177 0 min 0,000 mm 0,0 UV-I 0 W/m 15,4 C 17,8 C 0,0 km/h (0 Bft) 97,87 %
21.07.2016 01:12 17,7 C 86 % 1014,4 hPa 0,0 l/m 0,0 km/h (0 Bft) S 177 0 min 0,000 mm 0,0 UV-I 0 W/m 15,3 C 17,7 C 0,0 km/h (0 Bft) 97,87 %
21.07.2016 01:14 17,6 C 86 % 1014,4 hPa 0,0 l/m 0,0 km/h (0 Bft) S 177 0 min 0,000 mm 0,0 UV-I 0 W/m 15,2 C 17,6 C 0,0 km/h (0 Bft) 95,74 %
21.07.2016 01:16 17,4 C 87 % 1014,4 hPa 0,0 l/m 0,0 km/h (0 Bft) S 177 0 min 0,000 mm 0,0 UV-I 0 W/m 15,2 C 17,4 C 0,0 km/h (0 Bft) 95,74 %
21.07.2016 01:18 17,4 C 87 % 1014,3 hPa 0,0 l/m 0,0 km/h (0 Bft) S 177 0 min 0,000 mm 0,0 UV-I 0 W/m 15,2 C 17,4 C 0,0 km/h (0 Bft) 94,00 %
21.07.2016 01:20 17,3 C 87 % 1014,4 hPa 0,0 l/m 0,0 km/h (0 Bft) S 177 0 min 0,000 mm 0,0 UV-I 0 W/m 15,1 C 17,3 C 0,0 km/h (0 Bft) 97,37 %
21.07.2016 01:22 17,2 C 87 % 1014,3 hPa 0,0 l/m 0,0 km/h (0 Bft) S 177 0 min 0,000 mm 0,0 UV-I 0 W/m 15,0 C 17,2 C 0,0 km/h (0 Bft) 94,00 %
21.07.2016 01:24 17,2 C 87 % 1014,2 hPa 0,0 l/m 0,0 km/h (0 Bft) S 177 0 min 0,000 mm 0,0 UV-I 0 W/m 15,0 C 17,2 C 0,0 km/h (0 Bft) 93,62 %
21.07.2016 01:26 17,1 C 88 % 1014,3 hPa 0,0 l/m 0,1 km/h (0 Bft) S 177 0 min 0,000 mm 0,0 UV-I 0 W/m 15,1 C 17,1 C 1,6 km/h (1 Bft) 97,87 %
21.07.2016 01:28 17,1 C 88 % 1014,3 hPa 0,0 l/m 1,6 km/h (1 Bft) S 177 0 min 0,000 mm 0,0 UV-I 0 W/m 15,1 C 17,1 C 3,2 km/h (1 Bft) 97,87 %
21.07.2016 01:30 17,0 C 88 % 1014,3 hPa 0,0 l/m 2,1 km/h (1 Bft) S 177 0 min 0,000 mm 0,0 UV-I 0 W/m 15,0 C 17,0 C 3,2 km/h (1 Bft) 98,00 %
21.07.2016 01:32 16,9 C 89 % 1014,3 hPa 0,0 l/m 2,8 km/h (1 Bft) S 177 0 min 0,000 mm 0,0 UV-I 0 W/m 15,1 C 16,9 C 3,2 km/h (1 Bft) 95,74 %
21.07.2016 01:34 16,9 C 89 % 1014,3 hPa 0,0 l/m 3,3 km/h (1 Bft) S 177 0 min 0,000 mm 0,0 UV-I 0 W/m 15,1 C 16,9 C 4,8 km/h (1 Bft) 100,00 %
21.07.2016 01:36 16,8 C 89 % 1014,2 hPa 0,0 l/m 1,5 km/h (1 Bft) S 177 0 min 0,000 mm 0,0 UV-I 0 W/m 15,0 C 16,8 C 3,2 km/h (1 Bft) 100,00 %
21.07.2016 01:38 16,7 C 89 % 1014,3 hPa 0,0 l/m 0,2 km/h (0 Bft) S 177 0 min 0,000 mm 0,0 UV-I 0 W/m 14,9 C 16,7 C 1,6 km/h (1 Bft) 100,00 %
21.07.2016 01:40 16,7 C 89 % 1014,3 hPa 0,0 l/m 3,2 km/h (1 Bft) S 177 0 min 0,000 mm 0,0 UV-I 0 W/m 14,9 C 16,7 C 4,8 km/h (1 Bft) 97,87 %
21.07.2016 01:42 16,7 C 90 % 1014,2 hPa 0,0 l/m 4,1 km/h (1 Bft) S 177 0 min 0,000 mm 0,0 UV-I 0 W/m 15,0 C 16,7 C 4,8 km/h (1 Bft) 97,92 %
21.07.2016 01:44 16,7 C 90 % 1014,2 hPa 0,0 l/m 3,2 km/h (1 Bft) S 177 0 min 0,000 mm 0,0 UV-I 0 W/m 15,0 C 16,7 C 4,8 km/h (1 Bft) 100,00 %
21.07.2016 01:46 16,8 C 89 % 1014,2 hPa 0,0 l/m 1,6 km/h (1 Bft) S 177 0 min 0,000 mm 0,0 UV-I 0 W/m 15,0 C 16,8 C 3,2 km/h (1 Bft) 100,00 %
21.07.2016 01:48 16,8 C 89 % 1014,2 hPa 0,0 l/m 1,5 km/h (1 Bft) S 177 0 min 0,000 mm 0,0 UV-I 0 W/m 15,0 C 16,8 C 3,2 km/h (1 Bft) 100,00 %
21.07.2016 01:50 16,8 C 89 % 1014,2 hPa 0,0 l/m 1,4 km/h (1 Bft) S 177 0 min 0,000 mm 0,0 UV-I 0 W/m 15,0 C 16,8 C 3,2 km/h (1 Bft) 100,00 %
21.07.2016 01:52 16,9 C 89 % 1014,3 hPa 0,0 l/m 0,4 km/h (0 Bft) S 177 0 min 0,000 mm 0,0 UV-I 0 W/m 15,1 C 16,9 C 1,6 km/h (1 Bft) 97,96 %
21.07.2016 01:54 16,9 C 89 % 1014,3 hPa 0,0 l/m 1,3 km/h (1 Bft) S 177 0 min 0,000 mm 0,0 UV-I 0 W/m 15,1 C 16,9 C 3,2 km/h (1 Bft) 100,00 %
21.07.2016 01:56 16,8 C 89 % 1014,3 hPa 0,0 l/m 2,2 km/h (1 Bft) S 177 0 min 0,000 mm 0,0 UV-I 0 W/m 15,0 C 16,8 C 3,2 km/h (1 Bft) 100,00 %
21.07.2016 01:58 16,7 C 89 % 1014,3 hPa 0,0 l/m 3,3 km/h (1 Bft) S 177 0 min 0,000 mm 0,0 UV-I 0 W/m 14,9 C 16,7 C 4,8 km/h (1 Bft) 100,00 %
21.07.2016 02:00 16,7 C 90 % 1014,3 hPa 0,0 l/m 3,6 km/h (1 Bft) S 177 0 min 0,000 mm 0,0 UV-I 0 W/m 15,0 C 16,7 C 4,8 km/h (1 Bft) 100,00 %
21.07.2016 02:02 16,6 C 90 % 1014,3 hPa 0,0 l/m 3,7 km/h (1 Bft) S 177 0 min 0,000 mm 0,0 UV-I 0 W/m 15,0 C 16,6 C 4,8 km/h (1 Bft) 98,00 %
21.07.2016 02:04 16,6 C 90 % 1014,3 hPa 0,0 l/m 3,3 km/h (1 Bft) S 177 0 min 0,000 mm 0,0 UV-I 0 W/m 15,0 C 16,6 C 4,8 km/h (1 Bft) 100,00 %
21.07.2016 02:06 16,6 C 90 % 1014,3 hPa 0,0 l/m 2,1 km/h (1 Bft) S 177 0 min 0,000 mm 0,0 UV-I 0 W/m 15,0 C 16,6 C 3,2 km/h (1 Bft) 100,00 %
21.07.2016 02:08 16,6 C 90 % 1014,2 hPa 0,0 l/m 2,5 km/h (1 Bft) S 177 0 min 0,000 mm 0,0 UV-I 0 W/m 15,0 C 16,6 C 3,2 km/h (1 Bft) 100,00 %
21.07.2016 02:10 16,7 C 89 % 1014,2 hPa 0,0 l/m 2,3 km/h (1 Bft) S 177 0 min 0,000 mm 0,0 UV-I 0 W/m 14,9 C 16,7 C 3,2 km/h (1 Bft) 100,00 %
21.07.2016 02:12 16,8 C 89 % 1014,2 hPa 0,0 l/m 2,8 km/h (1 Bft) S 177 0 min 0,000 mm 0,0 UV-I 0 W/m 15,0 C 16,8 C 3,2 km/h (1 Bft) 100,00 %
21.07.2016 02:14 16,8 C 89 % 1014,2 hPa 0,0 l/m 4,4 km/h (1 Bft) S 177 0 min 0,000 mm 0,0 UV-I 0 W/m 15,0 C 16,8 C 4,8 km/h (1 Bft) 100,00 %
21.07.2016 02:16 16,8 C 88 % 1014,2 hPa 0,0 l/m 3,4 km/h (1 Bft) S 177 0 min 0,000 mm 0,0 UV-I 0 W/m 14,8 C 16,8 C 4,8 km/h (1 Bft) 100,00 %
21.07.2016 02:18 16,8 C 88 % 1014,3 hPa 0,0 l/m 4,1 km/h (1 Bft) S 177 0 min 0,000 mm 0,0 UV-I 0 W/m 14,8 C 16,8 C 4,8 km/h (1 Bft) 98,39 %
21.07.2016 02:20 16,9 C 88 % 1014,2 hPa 0,0 l/m 2,9 km/h (1 Bft) S 177 0 min 0,000 mm 0,0 UV-I 0 W/m 14,9 C 16,9 C 3,2 km/h (1 Bft) 100,00 %
21.07.2016 02:22 16,9 C 87 % 1014,2 hPa 0,0 l/m 2,1 km/h (1 Bft) S 177 0 min 0,000 mm 0,0 UV-I 0 W/m 14,7 C 16,9 C 3,2 km/h (1 Bft) 97,87 %
21.07.2016 02:24 17,0 C 87 % 1014,2 hPa 0,0 l/m 0,8 km/h (0 Bft) S 177 0 min 0,000 mm 0,0 UV-I 0 W/m 14,8 C 17,0 C 1,6 km/h (1 Bft) 100,00 %
21.07.2016 02:26 17,0 C 86 % 1014,2 hPa 0,0 l/m 3,3 km/h (1 Bft) S 177 0 min 0,000 mm 0,0 UV-I 0 W/m 14,6 C 17,0 C 4,8 km/h (1 Bft) 97,87 %
21.07.2016 02:28 17,0 C 86 % 1014,3 hPa 0,0 l/m 3,0 km/h (1 Bft) S 177 0 min 0,000 mm 0,0 UV-I 0 W/m 14,6 C 17,0 C 4,8 km/h (1 Bft) 100,00 %
21.07.2016 02:30 16,9 C 86 % 1014,3 hPa 0,0 l/m 1,5 km/h (1 Bft) S 177 0 min 0,000 mm 0,0 UV-I 0 W/m 14,5 C 16,9 C 1,6 km/h (1 Bft) 95,74 %
21.07.2016 02:32 16,9 C 87 % 1014,2 hPa 0,0 l/m 1,3 km/h (1 Bft) S 177 0 min 0,000 mm 0,0 UV-I 0 W/m 14,7 C 16,9 C 3,2 km/h (1 Bft) 97,87 %
21.07.2016 02:34 16,9 C 87 % 1014,2 hPa 0,0 l/m 1,5 km/h (1 Bft) S 177 0 min 0,000 mm 0,0 UV-I 0 W/m 14,7 C 16,9 C 1,6 km/h (1 Bft) 97,87 %
21.07.2016 02:36 16,8 C 87 % 1014,2 hPa 0,0 l/m 1,5 km/h (1 Bft) S 177 0 min 0,000 mm 0,0 UV-I 0 W/m 14,6 C 16,8 C 3,2 km/h (1 Bft) 100,00 %
21.07.2016 02:38 16,7 C 88 % 1014,2 hPa 0,0 l/m 1,7 km/h (1 Bft) S 177 0 min 0,000 mm 0,0 UV-I 0 W/m 14,7 C 16,7 C 3,2 km/h (1 Bft) 97,87 %
21.07.2016 02:40 16,6 C 88 % 1014,2 hPa 0,0 l/m 0,3 km/h (0 Bft) S 177 0 min 0,000 mm 0,0 UV-I 0 W/m 14,6 C 16,6 C 1,6 km/h (1 Bft) 97,87 %
21.07.2016 02:42 16,5 C 88 % 1014,2 hPa 0,0 l/m 0,5 km/h (0 Bft) S 177 0 min 0,000 mm 0,0 UV-I 0 W/m 14,5 C 16,5 C 1,6 km/h (1 Bft) 94,59 %
21.07.2016 02:44 16,4 C 88 % 1014,1 hPa 0,0 l/m 1,1 km/h (1 Bft) S 177 0 min 0,000 mm 0,0 UV-I 0 W/m 14,4 C 16,4 C 1,6 km/h (1 Bft) 95,74 %
21.07.2016 02:46 16,4 C 88 % 1014,1 hPa 0,0 l/m 0,4 km/h (0 Bft) S 177 0 min 0,000 mm 0,0 UV-I 0 W/m 14,4 C 16,4 C 1,6 km/h (1 Bft) 100,00 %
21.07.2016 02:48 16,5 C 87 % 1014,1 hPa 0,0 l/m 0,4 km/h (0 Bft) S 177 0 min 0,000 mm 0,0 UV-I 0 W/m 14,3 C 16,5 C 3,2 km/h (1 Bft) 100,00 %
21.07.2016 02:50 16,5 C 87 % 1014,1 hPa 0,0 l/m 2,4 km/h (1 Bft) S 177 0 min 0,000 mm 0,0 UV-I 0 W/m 14,3 C 16,5 C 3,2 km/h (1 Bft) 97,87 %
21.07.2016 02:52 16,4 C 89 % 1014,1 hPa 0,0 l/m 3,7 km/h (1 Bft) O 100 0 min 0,000 mm 0,0 UV-I 0 W/m 14,6 C 16,4 C 4,8 km/h (1 Bft) 100,00 %
21.07.2016 02:54 16,4 C 89 % 1014,1 hPa 0,0 l/m 3,8 km/h (1 Bft) O 96 0 min 0,000 mm 0,0 UV-I 0 W/m 14,6 C 16,4 C 4,8 km/h (1 Bft) 97,87 %
21.07.2016 02:56 16,4 C 90 % 1014,0 hPa 0,0 l/m 2,3 km/h (1 Bft) O 96 0 min 0,000 mm 0,0 UV-I 0 W/m 14,8 C 16,4 C 4,8 km/h (1 Bft) 93,75 %
21.07.2016 02:58 16,6 C 90 % 1014,1 hPa 0,0 l/m 0,8 km/h (0 Bft) O 96 0 min 0,000 mm 0,0 UV-I 0 W/m 15,0 C 16,6 C 1,6 km/h (1 Bft) 95,74 %
21.07.2016 03:00 16,6 C 89 % 1014,1 hPa 0,0 l/m 0,0 km/h (0 Bft) O 96 0 min 0,000 mm 0,0 UV-I 0 W/m 14,8 C 16,6 C 0,0 km/h (0 Bft) 97,87 %
21.07.2016 03:02 16,5 C 89 % 1014,1 hPa 0,0 l/m 0,0 km/h (0 Bft) O 96 0 min 0,000 mm 0,0 UV-I 0 W/m 14,7 C 16,5 C 0,0 km/h (0 Bft) 95,74 %
21.07.2016 03:04 16,4 C 89 % 1014,1 hPa 0,0 l/m 0,0 km/h (0 Bft) O 96 0 min 0,000 mm 0,0 UV-I 0 W/m 14,6 C 16,4 C 0,0 km/h (0 Bft) 95,74 %
21.07.2016 03:06 16,3 C 89 % 1014,2 hPa 0,0 l/m 0,0 km/h (0 Bft) O 96 0 min 0,000 mm 0,0 UV-I 0 W/m 14,5 C 16,3 C 0,0 km/h (0 Bft) 97,87 %
21.07.2016 03:08 16,2 C 89 % 1014,2 hPa 0,0 l/m 0,7 km/h (0 Bft) O 96 0 min 0,000 mm 0,0 UV-I 0 W/m 14,4 C 16,2 C 1,6 km/h (1 Bft) 95,74 %
21.07.2016 03:10 16,0 C 89 % 1014,2 hPa 0,0 l/m 1,4 km/h (1 Bft) O 96 0 min 0,000 mm 0,0 UV-I 0 W/m 14,2 C 16,0 C 1,6 km/h (1 Bft) 98,11 %
21.07.2016 03:12 15,9 C 90 % 1014,2 hPa 0,0 l/m 1,4 km/h (1 Bft) O 96 0 min 0,000 mm 0,0 UV-I 0 W/m 14,3 C 15,9 C 3,2 km/h (1 Bft) 97,87 %
21.07.2016 03:14 15,8 C 90 % 1014,2 hPa 0,0 l/m 1,9 km/h (1 Bft) O 96 0 min 0,000 mm 0,0 UV-I 0 W/m 14,2 C 15,8 C 3,2 km/h (1 Bft) 97,87 %
21.07.2016 03:16 15,8 C 90 % 1014,2 hPa 0,0 l/m 1,4 km/h (1 Bft) O-SO 106 0 min 0,000 mm 0,0 UV-I 0 W/m 14,2 C 15,8 C 3,2 km/h (1 Bft) 97,14 %
21.07.2016 03:18 15,8 C 90 % 1014,2 hPa 0,0 l/m 1,5 km/h (1 Bft) O-SO 106 0 min 0,000 mm 0,0 UV-I 0 W/m 14,2 C 15,8 C 3,2 km/h (1 Bft) 98,00 %
21.07.2016 03:20 15,8 C 90 % 1014,2 hPa 0,0 l/m 1,5 km/h (1 Bft) O-SO 106 0 min 0,000 mm 0,0 UV-I 0 W/m 14,2 C 15,8 C 3,2 km/h (1 Bft) 97,87 %
21.07.2016 03:22 15,7 C 90 % 1014,2 hPa 0,0 l/m 0,9 km/h (0 Bft) O-SO 106 0 min 0,000 mm 0,0 UV-I 0 W/m 14,1 C 15,7 C 1,6 km/h (1 Bft) 97,87 %
21.07.2016 03:24 15,7 C 90 % 1014,2 hPa 0,0 l/m 0,8 km/h (0 Bft) O-SO 106 0 min 0,000 mm 0,0 UV-I 0 W/m 14,1 C 15,7 C 3,2 km/h (1 Bft) 97,87 %
21.07.2016 03:26 15,7 C 90 % 1014,2 hPa 0,0 l/m 2,8 km/h (1 Bft) O-SO 106 0 min 0,000 mm 0,0 UV-I 0 W/m 14,1 C 15,7 C 3,2 km/h (1 Bft) 95,74 %
21.07.2016 03:28 15,8 C 89 % 1014,2 hPa 0,0 l/m 2,4 km/h (1 Bft) O-SO 108 0 min 0,000 mm 0,0 UV-I 0 W/m 14,0 C 15,8 C 3,2 km/h (1 Bft) 97,87 %
21.07.2016 03:30 15,8 C 89 % 1014,2 hPa 0,0 l/m 4,8 km/h (1 Bft) S-SO 167 0 min 0,000 mm 0,0 UV-I 0 W/m 14,0 C 15,8 C 6,4 km/h (2 Bft) 100,00 %
21.07.2016 03:32 15,9 C 89 % 1014,2 hPa 0,0 l/m 5,2 km/h (1 Bft) S 169 0 min 0,000 mm 0,0 UV-I 0 W/m 14,1 C 15,9 C 8,0 km/h (2 Bft) 100,00 %
21.07.2016 03:34 15,9 C 89 % 1014,2 hPa 0,0 l/m 1,5 km/h (1 Bft) S 169 0 min 0,000 mm 0,0 UV-I 0 W/m 14,1 C 15,9 C 3,2 km/h (1 Bft) 100,00 %
21.07.2016 03:36 15,9 C 88 % 1014,2 hPa 0,0 l/m 1,4 km/h (1 Bft) S 169 0 min 0,000 mm 0,0 UV-I 0 W/m 13,9 C 15,9 C 1,6 km/h (1 Bft) 97,87 %
21.07.2016 03:38 15,9 C 88 % 1014,1 hPa 0,0 l/m 0,7 km/h (0 Bft) S 169 0 min 0,000 mm 0,0 UV-I 0 W/m 13,9 C 15,9 C 1,6 km/h (1 Bft) 100,00 %
21.07.2016 03:40 15,9 C 88 % 1014,1 hPa 0,0 l/m 1,2 km/h (1 Bft) S 169 0 min 0,000 mm 0,0 UV-I 0 W/m 13,9 C 15,9 C 3,2 km/h (1 Bft) 100,00 %
21.07.2016 03:42 15,9 C 88 % 1014,1 hPa 0,0 l/m 1,6 km/h (1 Bft) S 169 0 min 0,000 mm 0,0 UV-I 0 W/m 13,9 C 15,9 C 3,2 km/h (1 Bft) 97,87 %
21.07.2016 03:44 16,1 C 88 % 1014,1 hPa 0,0 l/m 2,8 km/h (1 Bft) S 169 0 min 0,000 mm 0,0 UV-I 0 W/m 14,1 C 16,1 C 3,2 km/h (1 Bft) 100,00 %
21.07.2016 03:46 16,1 C 87 % 1014,1 hPa 0,0 l/m 1,2 km/h (1 Bft) S 169 0 min 0,000 mm 0,0 UV-I 0 W/m 13,9 C 16,1 C 3,2 km/h (1 Bft) 100,00 %
21.07.2016 03:48 16,1 C 88 % 1014,0 hPa 0,0 l/m 0,7 km/h (0 Bft) S 169 0 min 0,000 mm 0,0 UV-I 0 W/m 14,1 C 16,1 C 1,6 km/h (1 Bft) 100,00 %
21.07.2016 03:50 15,9 C 88 % 1014,0 hPa 0,0 l/m 0,1 km/h (0 Bft) S 169 0 min 0,000 mm 0,0 UV-I 0 W/m 13,9 C 15,9 C 1,6 km/h (1 Bft) 100,00 %
21.07.2016 03:52 15,8 C 89 % 1013,9 hPa 0,0 l/m 0,0 km/h (0 Bft) S 169 0 min 0,000 mm 0,0 UV-I 0 W/m 14,0 C 15,8 C 0,0 km/h (0 Bft) 100,00 %
21.07.2016 03:54 15,8 C 89 % 1013,9 hPa 0,0 l/m 0,0 km/h (0 Bft) S 169 0 min 0,000 mm 0,0 UV-I 0 W/m 14,0 C 15,8 C 0,0 km/h (0 Bft) 100,00 %
21.07.2016 03:56 15,7 C 89 % 1014,0 hPa 0,0 l/m 0,0 km/h (0 Bft) S 169 0 min 0,000 mm 0,0 UV-I 0 W/m 13,9 C 15,7 C 0,0 km/h (0 Bft) 100,00 %
21.07.2016 03:58 15,6 C 89 % 1013,9 hPa 0,0 l/m 0,0 km/h (0 Bft) S 169 0 min 0,000 mm 0,0 UV-I 0 W/m 13,8 C 15,6 C 0,0 km/h (0 Bft) 97,87 %
21.07.2016 04:00 15,6 C 90 % 1013,9 hPa 0,0 l/m 0,0 km/h (0 Bft) S 169 0 min 0,000 mm 0,0 UV-I 0 W/m 14,0 C 15,6 C 0,0 km/h (0 Bft) 97,87 %
21.07.2016 04:02 15,5 C 90 % 1013,9 hPa 0,0 l/m 0,0 km/h (0 Bft) S 169 0 min 0,000 mm 0,0 UV-I 0 W/m 13,9 C 15,5 C 0,0 km/h (0 Bft) 94,29 %
21.07.2016 04:04 15,5 C 90 % 1013,9 hPa 0,0 l/m 0,0 km/h (0 Bft) S 169 0 min 0,000 mm 0,0 UV-I 0 W/m 13,9 C 15,5 C 0,0 km/h (0 Bft) 100,00 %
21.07.2016 04:06 15,5 C 90 % 1013,9 hPa 0,0 l/m 0,0 km/h (0 Bft) S 169 0 min 0,000 mm 0,0 UV-I 0 W/m 13,9 C 15,5 C 1,6 km/h (1 Bft) 100,00 %
21.07.2016 04:08 15,4 C 90 % 1013,9 hPa 0,0 l/m 0,5 km/h (0 Bft) S 169 0 min 0,000 mm 0,0 UV-I 0 W/m 13,8 C 15,4 C 1,6 km/h (1 Bft) 95,74 %
21.07.2016 04:10 15,3 C 90 % 1013,9 hPa 0,0 l/m 2,1 km/h (1 Bft) S 169 0 min 0,000 mm 0,0 UV-I 0 W/m 13,7 C 15,3 C 3,2 km/h (1 Bft) 97,87 %
21.07.2016 04:12 15,2 C 91 % 1013,9 hPa 0,0 l/m 1,8 km/h (1 Bft) S 169 0 min 0,000 mm 0,0 UV-I 0 W/m 13,7 C 15,2 C 3,2 km/h (1 Bft) 100,00 %
21.07.2016 04:14 15,1 C 91 % 1013,8 hPa 0,0 l/m 1,6 km/h (1 Bft) S 169 0 min 0,000 mm 0,0 UV-I 0 W/m 13,6 C 15,1 C 3,2 km/h (1 Bft) 97,87 %
21.07.2016 04:16 15,1 C 92 % 1013,8 hPa 0,0 l/m 0,9 km/h (0 Bft) S 169 0 min 0,000 mm 0,0 UV-I 0 W/m 13,8 C 15,1 C 3,2 km/h (1 Bft) 100,00 %
21.07.2016 04:18 15,1 C 92 % 1013,7 hPa 0,0 l/m 0,1 km/h (0 Bft) S 169 0 min 0,000 mm 0,0 UV-I 0 W/m 13,8 C 15,1 C 1,6 km/h (1 Bft) 97,92 %
21.07.2016 04:20 15,1 C 92 % 1013,7 hPa 0,0 l/m 0,0 km/h (0 Bft) S 169 0 min 0,000 mm 0,0 UV-I 0 W/m 13,8 C 15,1 C 0,0 km/h (0 Bft) 100,00 %
21.07.2016 04:22 15,1 C 92 % 1013,7 hPa 0,0 l/m 0,0 km/h (0 Bft) S 169 0 min 0,000 mm 0,0 UV-I 0 W/m 13,8 C 15,1 C 0,0 km/h (0 Bft) 100,00 %
21.07.2016 04:24 15,2 C 91 % 1013,7 hPa 0,0 l/m 0,0 km/h (0 Bft) S 169 0 min 0,000 mm 0,0 UV-I 0 W/m 13,7 C 15,2 C 0,0 km/h (0 Bft) 100,00 %
21.07.2016 04:26 15,2 C 91 % 1013,6 hPa 0,0 l/m 0,0 km/h (0 Bft) S 169 0 min 0,000 mm 0,0 UV-I 0 W/m 13,7 C 15,2 C 0,0 km/h (0 Bft) 95,74 %
21.07.2016 04:28 15,3 C 91 % 1013,6 hPa 0,0 l/m 0,0 km/h (0 Bft) S 169 0 min 0,000 mm 0,0 UV-I 0 W/m 13,8 C 15,3 C 0,0 km/h (0 Bft) 95,74 %
21.07.2016 04:30 15,3 C 91 % 1013,6 hPa 0,0 l/m 0,0 km/h (0 Bft) S 169 0 min 0,000 mm 0,0 UV-I 0 W/m 13,8 C 15,3 C 0,0 km/h (0 Bft) 97,87 %
21.07.2016 04:32 15,3 C 90 % 1013,6 hPa 0,0 l/m 0,6 km/h (0 Bft) S 169 0 min 0,000 mm 0,0 UV-I 0 W/m 13,7 C 15,3 C 1,6 km/h (1 Bft) 100,00 %
21.07.2016 04:34 15,2 C 90 % 1013,6 hPa 0,0 l/m 0,0 km/h (0 Bft) S 169 0 min 0,000 mm 0,0 UV-I 0 W/m 13,6 C 15,2 C 0,0 km/h (0 Bft) 100,00 %
21.07.2016 04:36 15,1 C 90 % 1013,5 hPa 0,0 l/m 0,1 km/h (0 Bft) S 169 0 min 0,000 mm 0,0 UV-I 0 W/m 13,5 C 15,1 C 1,6 km/h (1 Bft) 97,87 %
21.07.2016 04:38 15,0 C 91 % 1013,5 hPa 0,0 l/m 2,3 km/h (1 Bft) S 169 0 min 0,000 mm 0,0 UV-I 0 W/m 13,5 C 15,0 C 3,2 km/h (1 Bft) 100,00 %
21.07.2016 04:40 14,9 C 91 % 1013,5 hPa 0,0 l/m 2,5 km/h (1 Bft) S 169 0 min 0,000 mm 0,0 UV-I 0 W/m 13,4 C 14,9 C 3,2 km/h (1 Bft) 100,00 %
21.07.2016 04:42 14,8 C 91 % 1013,5 hPa 0,0 l/m 3,0 km/h (1 Bft) S 169 0 min 0,000 mm 0,0 UV-I 0 W/m 13,3 C 14,8 C 3,2 km/h (1 Bft) 97,87 %
21.07.2016 04:44 14,7 C 91 % 1013,4 hPa 0,0 l/m 2,8 km/h (1 Bft) S 169 0 min 0,000 mm 0,0 UV-I 0 W/m 13,2 C 14,7 C 3,2 km/h (1 Bft) 100,00 %
21.07.2016 04:46 14,7 C 92 % 1013,4 hPa 0,0 l/m 2,3 km/h (1 Bft) S 169 0 min 0,000 mm 0,0 UV-I 0 W/m 13,4 C 14,7 C 3,2 km/h (1 Bft) 97,87 %
21.07.2016 04:48 14,7 C 92 % 1013,4 hPa 0,0 l/m 0,6 km/h (0 Bft) S 169 0 min 0,000 mm 0,0 UV-I 0 W/m 13,4 C 14,7 C 1,6 km/h (1 Bft) 97,87 %
21.07.2016 04:50 14,8 C 92 % 1013,4 hPa 0,0 l/m 0,0 km/h (0 Bft) S 169 0 min 0,000 mm 0,0 UV-I 0 W/m 13,5 C 14,8 C 0,0 km/h (0 Bft) 100,00 %
21.07.2016 04:52 14,8 C 92 % 1013,4 hPa 0,0 l/m 0,0 km/h (0 Bft) S 169 0 min 0,000 mm 0,0 UV-I 0 W/m 13,5 C 14,8 C 0,0 km/h (0 Bft) 100,00 %
21.07.2016 04:54 14,8 C 92 % 1013,4 hPa 0,0 l/m 0,0 km/h (0 Bft) S 169 0 min 0,000 mm 0,0 UV-I 0 W/m 13,5 C 14,8 C 0,0 km/h (0 Bft) 95,83 %
21.07.2016 04:56 14,9 C 92 % 1013,3 hPa 0,0 l/m 0,0 km/h (0 Bft) S 169 0 min 0,000 mm 0,0 UV-I 0 W/m 13,6 C 14,9 C 0,0 km/h (0 Bft) 95,74 %
21.07.2016 04:58 14,8 C 92 % 1013,4 hPa 0,0 l/m 0,0 km/h (0 Bft) S 169 0 min 0,000 mm 0,0 UV-I 0 W/m 13,5 C 14,8 C 0,0 km/h (0 Bft) 97,87 %
21.07.2016 05:00 14,7 C 91 % 1013,4 hPa 0,0 l/m 0,0 km/h (0 Bft) S 169 0 min 0,000 mm 0,0 UV-I 0 W/m 13,2 C 14,7 C 0,0 km/h (0 Bft) 97,87 %
21.07.2016 05:02 14,6 C 92 % 1013,4 hPa 0,0 l/m 0,1 km/h (0 Bft) S 169 0 min 0,000 mm 0,0 UV-I 0 W/m 13,3 C 14,6 C 1,6 km/h (1 Bft) 97,87 %
21.07.2016 05:04 14,5 C 92 % 1013,4 hPa 0,0 l/m 1,2 km/h (1 Bft) S 169 0 min 0,000 mm 0,0 UV-I 0 W/m 13,2 C 14,5 C 1,6 km/h (1 Bft) 97,87 %
21.07.2016 05:06 14,4 C 92 % 1013,4 hPa 0,0 l/m 1,8 km/h (1 Bft) S 169 0 min 0,000 mm 0,0 UV-I 0 W/m 13,1 C 14,4 C 3,2 km/h (1 Bft) 97,87 %
21.07.2016 05:08 14,4 C 92 % 1013,3 hPa 0,0 l/m 2,5 km/h (1 Bft) S 169 0 min 0,000 mm 0,0 UV-I 0 W/m 13,1 C 14,4 C 3,2 km/h (1 Bft) 95,74 %
21.07.2016 05:10 14,3 C 92 % 1013,4 hPa 0,0 l/m 2,2 km/h (1 Bft) S 169 0 min 0,000 mm 0,0 UV-I 0 W/m 13,0 C 14,3 C 3,2 km/h (1 Bft) 97,87 %
21.07.2016 05:12 14,3 C 92 % 1013,4 hPa 0,0 l/m 1,9 km/h (1 Bft) S 169 0 min 0,000 mm 0,0 UV-I 0 W/m 13,0 C 14,3 C 3,2 km/h (1 Bft) 97,87 %
21.07.2016 05:14 14,3 C 93 % 1013,4 hPa 0,0 l/m 2,0 km/h (1 Bft) S 169 0 min 0,000 mm 0,0 UV-I 0 W/m 13,2 C 14,3 C 3,2 km/h (1 Bft) 95,74 %
21.07.2016 05:16 14,4 C 93 % 1013,4 hPa 0,0 l/m 1,6 km/h (1 Bft) S 169 0 min 0,000 mm 0,0 UV-I 0 W/m 13,3 C 14,4 C 3,2 km/h (1 Bft) 97,87 %
21.07.2016 05:18 14,4 C 93 % 1013,4 hPa 0,0 l/m 1,2 km/h (1 Bft) S 169 0 min 0,000 mm 0,0 UV-I 0 W/m 13,3 C 14,4 C 1,6 km/h (1 Bft) 97,87 %
21.07.2016 05:20 14,4 C 93 % 1013,4 hPa 0,0 l/m 0,2 km/h (0 Bft) S 169 0 min 0,000 mm 0,0 UV-I 0 W/m 13,3 C 14,4 C 1,6 km/h (1 Bft) 97,87 %
21.07.2016 05:22 14,4 C 92 % 1013,4 hPa 0,0 l/m 0,0 km/h (0 Bft) S 169 0 min 0,000 mm 0,0 UV-I 3 W/m 13,1 C 14,4 C 0,0 km/h (0 Bft) 97,87 %
21.07.2016 05:24 14,4 C 92 % 1013,5 hPa 0,0 l/m 0,0 km/h (0 Bft) S 169 0 min 0,000 mm 0,0 UV-I 5 W/m 13,1 C 14,4 C 0,0 km/h (0 Bft) 91,49 %
21.07.2016 05:26 14,5 C 92 % 1013,4 hPa 0,0 l/m 0,6 km/h (0 Bft) S 169 0 min 0,000 mm 0,0 UV-I 5 W/m 13,2 C 14,5 C 1,6 km/h (1 Bft) 95,74 %
21.07.2016 05:28 14,6 C 92 % 1013,4 hPa 0,0 l/m 1,6 km/h (1 Bft) S 169 0 min 0,000 mm 0,0 UV-I 5 W/m 13,3 C 14,6 C 3,2 km/h (1 Bft) 100,00 %
21.07.2016 05:30 14,6 C 92 % 1013,4 hPa 0,0 l/m 0,9 km/h (0 Bft) S 169 0 min 0,000 mm 0,0 UV-I 7 W/m 13,3 C 14,6 C 1,6 km/h (1 Bft) 100,00 %
21.07.2016 05:32 14,6 C 92 % 1013,4 hPa 0,0 l/m 0,0 km/h (0 Bft) S 169 0 min 0,000 mm 0,0 UV-I 7 W/m 13,3 C 14,6 C 1,6 km/h (1 Bft) 97,87 %
21.07.2016 05:34 14,6 C 92 % 1013,4 hPa 0,0 l/m 0,0 km/h (0 Bft) S 169 0 min 0,000 mm 0,0 UV-I 8 W/m 13,3 C 14,6 C 0,0 km/h (0 Bft) 100,00 %
21.07.2016 05:36 14,6 C 92 % 1013,4 hPa 0,0 l/m 0,0 km/h (0 Bft) S 169 0 min 0,000 mm 0,0 UV-I 9 W/m 13,3 C 14,6 C 0,0 km/h (0 Bft) 100,00 %
21.07.2016 05:38 14,6 C 92 % 1013,4 hPa 0,0 l/m 0,0 km/h (0 Bft) S 169 2 min 0,000 mm 0,0 UV-I 11 W/m 13,3 C 14,6 C 0,0 km/h (0 Bft) 100,00 %
21.07.2016 05:40 14,6 C 92 % 1013,4 hPa 0,0 l/m 0,0 km/h (0 Bft) S 169 2 min 0,000 mm 0,0 UV-I 11 W/m 13,3 C 14,6 C 0,0 km/h (0 Bft) 97,87 %
21.07.2016 05:42 14,6 C 92 % 1013,4 hPa 0,0 l/m 0,0 km/h (0 Bft) S 169 0 min 0,000 mm 0,0 UV-I 12 W/m 13,3 C 14,6 C 0,0 km/h (0 Bft) 97,87 %
21.07.2016 05:44 14,6 C 92 % 1013,3 hPa 0,0 l/m 0,0 km/h (0 Bft) S 169 0 min 0,000 mm 0,0 UV-I 12 W/m 13,3 C 14,6 C 0,0 km/h (0 Bft) 100,00 %
21.07.2016 05:46 14,7 C 92 % 1013,3 hPa 0,0 l/m 0,0 km/h (0 Bft) S 169 0 min 0,000 mm 0,0 UV-I 14 W/m 13,4 C 14,7 C 0,0 km/h (0 Bft) 100,00 %
21.07.2016 05:48 14,7 C 91 % 1013,3 hPa 0,0 l/m 0,6 km/h (0 Bft) S 169 0 min 0,000 mm 0,0 UV-I 14 W/m 13,2 C 14,7 C 3,2 km/h (1 Bft) 100,00 %
21.07.2016 05:50 14,6 C 92 % 1013,3 hPa 0,0 l/m 1,2 km/h (1 Bft) S 169 0 min 0,000 mm 0,0 UV-I 16 W/m 13,3 C 14,6 C 1,6 km/h (1 Bft) 97,87 %
21.07.2016 05:52 14,6 C 92 % 1013,3 hPa 0,0 l/m 0,8 km/h (0 Bft) S 169 0 min 0,000 mm 0,0 UV-I 16 W/m 13,3 C 14,6 C 1,6 km/h (1 Bft) 100,00 %
21.07.2016 05:54 14,7 C 92 % 1013,3 hPa 0,0 l/m 0,8 km/h (0 Bft) S 169 0 min 0,000 mm 0,0 UV-I 18 W/m 13,4 C 14,7 C 1,6 km/h (1 Bft) 97,87 %
21.07.2016 05:56 14,7 C 92 % 1013,4 hPa 0,0 l/m 0,0 km/h (0 Bft) S 169 0 min 0,000 mm 0,0 UV-I 18 W/m 13,4 C 14,7 C 1,6 km/h (1 Bft) 100,00 %
21.07.2016 05:58 14,7 C 92 % 1013,3 hPa 0,0 l/m 0,0 km/h (0 Bft) S 169 0 min 0,000 mm 0,0 UV-I 19 W/m 13,4 C 14,7 C 0,0 km/h (0 Bft) 100,00 %
21.07.2016 06:00 14,6 C 92 % 1013,4 hPa 0,0 l/m 0,0 km/h (0 Bft) S 169 0 min 0,000 mm 0,0 UV-I 21 W/m 13,3 C 14,6 C 0,0 km/h (0 Bft) 100,00 %
21.07.2016 06:02 14,5 C 92 % 1013,3 hPa 0,0 l/m 0,0 km/h (0 Bft) S 169 0 min 0,000 mm 0,0 UV-I 21 W/m 13,2 C 14,5 C 0,0 km/h (0 Bft) 97,37 %
21.07.2016 06:04 14,4 C 92 % 1013,3 hPa 0,0 l/m 0,0 km/h (0 Bft) S 169 0 min 0,000 mm 0,0 UV-I 22 W/m 13,1 C 14,4 C 0,0 km/h (0 Bft) 100,00 %
21.07.2016 06:06 14,4 C 92 % 1013,2 hPa 0,0 l/m 0,6 km/h (0 Bft) S 169 0 min 0,000 mm 0,0 UV-I 23 W/m 13,1 C 14,4 C 1,6 km/h (1 Bft) 100,00 %
21.07.2016 06:08 14,5 C 92 % 1013,3 hPa 0,0 l/m 1,9 km/h (1 Bft) S 169 0 min 0,000 mm 0,0 UV-I 25 W/m 13,2 C 14,5 C 3,2 km/h (1 Bft) 97,87 %
21.07.2016 06:10 14,6 C 92 % 1013,3 hPa 0,0 l/m 2,3 km/h (1 Bft) S 169 0 min 0,000 mm 0,0 UV-I 25 W/m 13,3 C 14,6 C 3,2 km/h (1 Bft) 100,00 %
21.07.2016 06:12 14,6 C 93 % 1013,2 hPa 0,0 l/m 4,0 km/h (1 Bft) O-NO 65 0 min 0,000 mm 0,0 UV-I 26 W/m 13,5 C 14,6 C 6,4 km/h (2 Bft) 100,00 %
21.07.2016 06:14 14,8 C 93 % 1013,2 hPa 0,0 l/m 4,4 km/h (1 Bft) O-NO 65 0 min 0,000 mm 0,0 UV-I 27 W/m 13,7 C 14,8 C 6,4 km/h (2 Bft) 97,87 %
21.07.2016 06:16 14,9 C 93 % 1013,3 hPa 0,0 l/m 3,4 km/h (1 Bft) O-NO 65 0 min 0,000 mm 0,0 UV-I 28 W/m 13,8 C 14,9 C 4,8 km/h (1 Bft) 100,00 %
21.07.2016 06:18 14,9 C 92 % 1013,3 hPa 0,0 l/m 3,3 km/h (1 Bft) O-NO 65 0 min 0,000 mm 0,0 UV-I 30 W/m 13,6 C 14,9 C 4,8 km/h (1 Bft) 97,87 %
21.07.2016 06:20 15,1 C 92 % 1013,2 hPa 0,0 l/m 2,6 km/h (1 Bft) O-NO 65 0 min 0,000 mm 0,0 UV-I 30 W/m 13,8 C 15,1 C 3,2 km/h (1 Bft) 100,00 %
21.07.2016 06:22 15,1 C 92 % 1013,2 hPa 0,0 l/m 1,0 km/h (0 Bft) O-NO 65 0 min 0,000 mm 0,0 UV-I 32 W/m 13,8 C 15,1 C 3,2 km/h (1 Bft) 100,00 %
21.07.2016 06:24 15,2 C 92 % 1013,1 hPa 0,0 l/m 0,2 km/h (0 Bft) O-NO 65 0 min 0,000 mm 0,0 UV-I 32 W/m 13,9 C 15,2 C 1,6 km/h (1 Bft) 100,00 %
21.07.2016 06:26 15,1 C 92 % 1013,1 hPa 0,0 l/m 0,1 km/h (0 Bft) O-NO 65 0 min 0,000 mm 0,0 UV-I 33 W/m 13,8 C 15,1 C 1,6 km/h (1 Bft) 97,87 %
21.07.2016 06:28 15,1 C 92 % 1013,2 hPa 0,0 l/m 0,7 km/h (0 Bft) O-NO 65 0 min 0,000 mm 0,0 UV-I 34 W/m 13,8 C 15,1 C 1,6 km/h (1 Bft) 100,00 %
21.07.2016 06:30 15,1 C 91 % 1013,2 hPa 0,0 l/m 0,8 km/h (0 Bft) O-NO 65 0 min 0,000 mm 0,0 UV-I 36 W/m 13,6 C 15,1 C 1,6 km/h (1 Bft) 100,00 %
21.07.2016 06:32 15,0 C 91 % 1013,2 hPa 0,0 l/m 0,0 km/h (0 Bft) O-NO 65 0 min 0,000 mm 0,0 UV-I 38 W/m 13,5 C 15,0 C 0,0 km/h (0 Bft) 97,37 %
21.07.2016 06:34 15,0 C 92 % 1013,2 hPa 0,0 l/m 0,2 km/h (0 Bft) O-NO 65 0 min 0,000 mm 0,0 UV-I 39 W/m 13,7 C 15,0 C 1,6 km/h (1 Bft) 97,87 %
21.07.2016 06:36 15,0 C 92 % 1013,2 hPa 0,0 l/m 0,0 km/h (0 Bft) O-NO 65 0 min 0,000 mm 0,0 UV-I 41 W/m 13,7 C 15,0 C 0,0 km/h (0 Bft) 100,00 %
21.07.2016 06:38 15,0 C 92 % 1013,2 hPa 0,0 l/m 0,0 km/h (0 Bft) O-NO 65 0 min 0,000 mm 0,0 UV-I 43 W/m 13,7 C 15,0 C 0,0 km/h (0 Bft) 97,87 %
21.07.2016 06:40 15,1 C 92 % 1013,2 hPa 0,0 l/m 0,0 km/h (0 Bft) O-NO 65 0 min 0,000 mm 0,0 UV-I 47 W/m 13,8 C 15,1 C 0,0 km/h (0 Bft) 100,00 %
21.07.2016 06:42 15,1 C 92 % 1013,2 hPa 0,0 l/m 0,0 km/h (0 Bft) O-NO 65 0 min 0,000 mm 0,0 UV-I 50 W/m 13,8 C 15,1 C 0,0 km/h (0 Bft) 100,00 %
21.07.2016 06:44 15,2 C 91 % 1013,2 hPa 0,0 l/m 0,2 km/h (0 Bft) O-NO 65 0 min 0,000 mm 0,0 UV-I 54 W/m 13,7 C 15,2 C 1,6 km/h (1 Bft) 95,74 %
21.07.2016 06:46 15,3 C 92 % 1013,2 hPa 0,0 l/m 0,7 km/h (0 Bft) O-NO 65 0 min 0,000 mm 0,0 UV-I 64 W/m 14,0 C 15,3 C 1,6 km/h (1 Bft) 97,87 %
21.07.2016 06:48 15,5 C 92 % 1013,2 hPa 0,0 l/m 1,4 km/h (1 Bft) O-NO 65 2 min 0,000 mm 0,0 UV-I 112 W/m 14,2 C 15,5 C 3,2 km/h (1 Bft) 100,00 %
21.07.2016 06:50 15,7 C 92 % 1013,2 hPa 0,0 l/m 0,6 km/h (0 Bft) O-NO 65 2 min 0,000 mm 0,0 UV-I 127 W/m 14,4 C 15,7 C 1,6 km/h (1 Bft) 97,87 %
21.07.2016 06:52 15,8 C 92 % 1013,2 hPa 0,0 l/m 0,8 km/h (0 Bft) O-NO 65 2 min 0,000 mm 0,0 UV-I 121 W/m 14,5 C 15,8 C 1,6 km/h (1 Bft) 100,00 %
21.07.2016 06:54 16,0 C 92 % 1013,2 hPa 0,0 l/m 1,1 km/h (1 Bft) O-NO 65 2 min 0,000 mm 0,0 UV-I 127 W/m 14,7 C 16,0 C 3,2 km/h (1 Bft) 97,83 %
21.07.2016 06:56 16,2 C 92 % 1013,2 hPa 0,0 l/m 0,4 km/h (0 Bft) O-NO 65 2 min 0,000 mm 0,0 UV-I 129 W/m 14,9 C 16,2 C 1,6 km/h (1 Bft) 95,83 %
21.07.2016 06:58 16,3 C 91 % 1013,2 hPa 0,0 l/m 0,7 km/h (0 Bft) O-NO 65 2 min 0,000 mm 0,0 UV-I 131 W/m 14,8 C 16,3 C 1,6 km/h (1 Bft) 97,37 %
21.07.2016 07:00 16,4 C 91 % 1013,2 hPa 0,0 l/m 0,1 km/h (0 Bft) O-NO 65 2 min 0,025 mm 0,0 UV-I 155 W/m 14,9 C 16,4 C 1,6 km/h (1 Bft) 100,00 %
21.07.2016 07:02 16,6 C 92 % 1013,2 hPa 0,0 l/m 0,0 km/h (0 Bft) O-NO 65 2 min 0,000 mm 0,0 UV-I 158 W/m 15,3 C 16,6 C 0,0 km/h (0 Bft) 95,74 %
21.07.2016 07:04 16,6 C 91 % 1013,2 hPa 0,0 l/m 0,2 km/h (0 Bft) O-NO 65 2 min 0,000 mm 0,0 UV-I 150 W/m 15,1 C 16,6 C 1,6 km/h (1 Bft) 95,74 %
21.07.2016 07:06 16,7 C 90 % 1013,3 hPa 0,0 l/m 1,0 km/h (0 Bft) O-NO 65 2 min 0,000 mm 0,0 UV-I 165 W/m 15,0 C 16,7 C 3,2 km/h (1 Bft) 95,74 %
21.07.2016 07:08 16,7 C 89 % 1013,2 hPa 0,0 l/m 1,5 km/h (1 Bft) O-NO 65 2 min 0,000 mm 0,0 UV-I 179 W/m 14,9 C 16,7 C 3,2 km/h (1 Bft) 95,74 %
21.07.2016 07:10 16,7 C 89 % 1013,3 hPa 0,0 l/m 1,1 km/h (1 Bft) O-NO 65 2 min 0,000 mm 0,0 UV-I 178 W/m 14,9 C 16,7 C 3,2 km/h (1 Bft) 95,74 %
21.07.2016 07:12 16,7 C 88 % 1013,2 hPa 0,0 l/m 0,1 km/h (0 Bft) O-NO 65 2 min 0,000 mm 0,0 UV-I 176 W/m 14,7 C 16,7 C 1,6 km/h (1 Bft) 97,87 %
21.07.2016 07:14 16,8 C 89 % 1013,2 hPa 0,0 l/m 0,0 km/h (0 Bft) O-NO 65 2 min 0,000 mm 0,0 UV-I 190 W/m 15,0 C 16,8 C 0,0 km/h (0 Bft) 97,87 %
21.07.2016 07:16 16,9 C 88 % 1013,3 hPa 0,0 l/m 0,1 km/h (0 Bft) O-NO 65 0 min 0,000 mm 0,0 UV-I 145 W/m 14,9 C 16,9 C 1,6 km/h (1 Bft) 97,87 %
21.07.2016 07:18 17,1 C 89 % 1013,2 hPa 0,0 l/m 0,6 km/h (0 Bft) O-NO 65 0 min 0,000 mm 0,0 UV-I 132 W/m 15,3 C 17,1 C 1,6 km/h (1 Bft) 95,74 %
21.07.2016 07:20 17,2 C 88 % 1013,3 hPa 0,0 l/m 0,6 km/h (0 Bft) O-NO 65 0 min 0,000 mm 0,3 UV-I 145 W/m 15,2 C 17,2 C 3,2 km/h (1 Bft) 97,87 %
21.07.2016 07:22 17,3 C 88 % 1013,3 hPa 0,0 l/m 0,0 km/h (0 Bft) O-NO 65 2 min 0,000 mm 0,5 UV-I 182 W/m 15,3 C 17,3 C 0,0 km/h (0 Bft) 97,87 %
21.07.2016 07:24 17,4 C 88 % 1013,3 hPa 0,0 l/m 0,2 km/h (0 Bft) O-NO 65 2 min 0,000 mm 0,5 UV-I 234 W/m 15,4 C 17,4 C 1,6 km/h (1 Bft) 97,87 %
21.07.2016 07:26 17,5 C 87 % 1013,4 hPa 0,0 l/m 1,1 km/h (1 Bft) O-NO 65 2 min 0,000 mm 0,5 UV-I 191 W/m 15,3 C 17,5 C 3,2 km/h (1 Bft) 95,74 %
21.07.2016 07:28 17,7 C 86 % 1013,3 hPa 0,0 l/m 2,4 km/h (1 Bft) O-NO 65 2 min 0,000 mm 0,5 UV-I 169 W/m 15,3 C 17,7 C 4,8 km/h (1 Bft) 95,74 %
21.07.2016 07:30 17,8 C 87 % 1013,2 hPa 0,0 l/m 2,9 km/h (1 Bft) O-NO 65 2 min 0,000 mm 0,6 UV-I 241 W/m 15,6 C 17,8 C 4,8 km/h (1 Bft) 97,92 %
21.07.2016 07:32 18,1 C 86 % 1013,3 hPa 0,0 l/m 2,1 km/h (1 Bft) O-NO 65 2 min 0,000 mm 0,6 UV-I 236 W/m 15,7 C 18,1 C 3,2 km/h (1 Bft) 97,87 %
21.07.2016 07:34 18,1 C 84 % 1013,3 hPa 0,0 l/m 2,9 km/h (1 Bft) O-NO 65 2 min 0,000 mm 0,6 UV-I 214 W/m 15,4 C 18,1 C 4,8 km/h (1 Bft) 97,87 %
21.07.2016 07:36 18,1 C 85 % 1013,3 hPa 0,0 l/m 3,8 km/h (1 Bft) O-NO 65 2 min 0,000 mm 0,6 UV-I 192 W/m 15,5 C 18,1 C 4,8 km/h (1 Bft) 95,74 %
21.07.2016 07:38 18,1 C 84 % 1013,3 hPa 0,0 l/m 2,5 km/h (1 Bft) O-NO 65 0 min 0,000 mm 0,6 UV-I 162 W/m 15,4 C 18,1 C 4,8 km/h (1 Bft) 97,87 %
21.07.2016 07:40 18,0 C 84 % 1013,3 hPa 0,0 l/m 2,9 km/h (1 Bft) O-NO 65 0 min 0,000 mm 0,6 UV-I 169 W/m 15,3 C 18,0 C 4,8 km/h (1 Bft) 100,00 %
21.07.2016 07:42 17,9 C 85 % 1013,3 hPa 0,0 l/m 2,6 km/h (1 Bft) O-NO 65 0 min 0,000 mm 0,6 UV-I 162 W/m 15,3 C 17,9 C 4,8 km/h (1 Bft) 100,00 %
21.07.2016 07:44 17,9 C 85 % 1013,3 hPa 0,0 l/m 0,7 km/h (0 Bft) O-NO 65 0 min 0,000 mm 0,6 UV-I 171 W/m 15,3 C 17,9 C 3,2 km/h (1 Bft) 100,00 %
21.07.2016 07:46 17,9 C 85 % 1013,4 hPa 0,0 l/m 2,3 km/h (1 Bft) O-NO 65 0 min 0,000 mm 0,7 UV-I 187 W/m 15,3 C 17,9 C 4,8 km/h (1 Bft) 97,87 %
21.07.2016 07:48 18,0 C 85 % 1013,4 hPa 0,0 l/m 3,3 km/h (1 Bft) O-NO 65 2 min 0,000 mm 0,7 UV-I 240 W/m 15,4 C 18,0 C 4,8 km/h (1 Bft) 98,00 %
21.07.2016 07:50 18,1 C 86 % 1013,4 hPa 0,0 l/m 2,8 km/h (1 Bft) O-NO 65 2 min 0,000 mm 0,7 UV-I 267 W/m 15,7 C 18,1 C 4,8 km/h (1 Bft) 97,87 %
21.07.2016 07:52 18,3 C 86 % 1013,4 hPa 0,0 l/m 3,4 km/h (1 Bft) O-NO 57 2 min 0,000 mm 0,7 UV-I 246 W/m 15,9 C 18,3 C 4,8 km/h (1 Bft) 100,00 %
21.07.2016 07:54 18,3 C 86 % 1013,4 hPa 0,0 l/m 5,3 km/h (1 Bft) NO 37 0 min 0,000 mm 0,7 UV-I 165 W/m 15,9 C 18,3 C 6,4 km/h (2 Bft) 100,00 %
21.07.2016 07:56 18,3 C 85 % 1013,3 hPa 0,0 l/m 3,7 km/h (1 Bft) NO 48 0 min 0,000 mm 0,7 UV-I 172 W/m 15,7 C 18,3 C 6,4 km/h (2 Bft) 97,87 %
21.07.2016 07:58 18,3 C 85 % 1013,3 hPa 0,0 l/m 2,9 km/h (1 Bft) NO 51 0 min 0,000 mm 0,8 UV-I 158 W/m 15,7 C 18,3 C 6,4 km/h (2 Bft) 97,14 %
21.07.2016 08:00 18,2 C 85 % 1013,3 hPa 0,0 l/m 5,2 km/h (1 Bft) O-NO 59 0 min 0,102 mm 0,8 UV-I 154 W/m 15,6 C 18,2 C 8,0 km/h (2 Bft) 93,62 %
21.07.2016 08:02 18,2 C 86 % 1013,3 hPa 0,0 l/m 6,5 km/h (2 Bft) NO 53 0 min 0,000 mm 0,8 UV-I 159 W/m 15,8 C 18,2 C 9,7 km/h (2 Bft) 100,00 %
21.07.2016 08:04 18,1 C 85 % 1013,3 hPa 0,0 l/m 6,8 km/h (2 Bft) O-NO 61 0 min 0,000 mm 0,8 UV-I 171 W/m 15,5 C 17,9 C 9,7 km/h (2 Bft) 100,00 %
21.07.2016 08:06 18,1 C 85 % 1013,3 hPa 0,0 l/m 5,9 km/h (2 Bft) NO 53 0 min 0,000 mm 0,9 UV-I 200 W/m 15,5 C 18,1 C 8,0 km/h (2 Bft) 97,87 %
21.07.2016 08:08 18,2 C 86 % 1013,2 hPa 0,0 l/m 6,1 km/h (2 Bft) O-NO 70 2 min 0,000 mm 1,0 UV-I 268 W/m 15,8 C 18,2 C 8,0 km/h (2 Bft) 98,00 %
21.07.2016 08:10 18,2 C 86 % 1013,2 hPa 0,0 l/m 3,6 km/h (1 Bft) O-NO 66 2 min 0,000 mm 0,9 UV-I 250 W/m 15,8 C 18,2 C 6,4 km/h (2 Bft) 100,00 %
21.07.2016 08:12 18,3 C 86 % 1013,2 hPa 0,0 l/m 5,0 km/h (1 Bft) O-NO 70 2 min 0,000 mm 0,9 UV-I 246 W/m 15,9 C 18,3 C 8,0 km/h (2 Bft) 100,00 %
21.07.2016 08:14 18,3 C 86 % 1013,2 hPa 0,0 l/m 4,8 km/h (1 Bft) O-NO 69 2 min 0,000 mm 0,9 UV-I 248 W/m 15,9 C 18,3 C 8,0 km/h (2 Bft) 100,00 %
21.07.2016 08:16 18,4 C 86 % 1013,3 hPa 0,0 l/m 5,7 km/h (1 Bft) O-NO 59 0 min 0,000 mm 0,9 UV-I 213 W/m 16,0 C 18,4 C 8,0 km/h (2 Bft) 97,87 %
21.07.2016 08:18 18,4 C 86 % 1013,3 hPa 0,0 l/m 6,4 km/h (2 Bft) NO 53 0 min 0,000 mm 0,9 UV-I 175 W/m 16,0 C 18,4 C 9,7 km/h (2 Bft) 97,87 %
21.07.2016 08:20 18,4 C 85 % 1013,3 hPa 0,0 l/m 5,5 km/h (1 Bft) O-NO 71 0 min 0,000 mm 0,9 UV-I 110 W/m 15,8 C 18,4 C 8,0 km/h (2 Bft) 100,00 %
21.07.2016 08:22 18,3 C 85 % 1013,3 hPa 0,0 l/m 5,0 km/h (1 Bft) O-NO 63 0 min 0,000 mm 0,9 UV-I 99 W/m 15,7 C 18,3 C 6,4 km/h (2 Bft) 100,00 %
21.07.2016 08:24 18,3 C 86 % 1013,3 hPa 0,0 l/m 5,1 km/h (1 Bft) NO 34 0 min 0,000 mm 1,1 UV-I 149 W/m 15,9 C 18,3 C 8,0 km/h (2 Bft) 95,74 %
21.07.2016 08:26 18,4 C 88 % 1013,3 hPa 0,0 l/m 5,4 km/h (1 Bft) NO 40 0 min 0,000 mm 1,1 UV-I 197 W/m 16,4 C 18,4 C 6,4 km/h (2 Bft) 100,00 %
21.07.2016 08:28 18,4 C 88 % 1013,3 hPa 0,0 l/m 3,7 km/h (1 Bft) NO 40 0 min 0,000 mm 1,1 UV-I 138 W/m 16,4 C 18,4 C 6,4 km/h (2 Bft) 100,00 %
21.07.2016 08:30 18,5 C 87 % 1013,4 hPa 0,0 l/m 2,1 km/h (1 Bft) NO 40 0 min 0,000 mm 1,4 UV-I 222 W/m 16,3 C 18,5 C 3,2 km/h (1 Bft) 100,00 %
21.07.2016 08:32 18,7 C 87 % 1013,4 hPa 0,0 l/m 1,3 km/h (1 Bft) NO 37 2 min 0,000 mm 1,6 UV-I 414 W/m 16,5 C 18,7 C 3,2 km/h (1 Bft) 100,00 %
21.07.2016 08:34 18,9 C 87 % 1013,4 hPa 0,0 l/m 0,9 km/h (0 Bft) NO 35 2 min 0,000 mm 1,6 UV-I 447 W/m 16,7 C 18,9 C 3,2 km/h (1 Bft) 100,00 %
21.07.2016 08:36 19,1 C 85 % 1013,4 hPa 0,0 l/m 2,4 km/h (1 Bft) NO 34 2 min 0,000 mm 1,7 UV-I 463 W/m 16,5 C 19,1 C 4,8 km/h (1 Bft) 97,87 %
21.07.2016 08:38 19,2 C 85 % 1013,4 hPa 0,0 l/m 3,0 km/h (1 Bft) N-NO 27 2 min 0,000 mm 1,7 UV-I 465 W/m 16,6 C 19,2 C 4,8 km/h (1 Bft) 96,00 %
21.07.2016 08:40 19,3 C 84 % 1013,5 hPa 0,0 l/m 3,0 km/h (1 Bft) N-NO 27 2 min 0,000 mm 1,7 UV-I 443 W/m 16,5 C 19,3 C 4,8 km/h (1 Bft) 100,00 %
21.07.2016 08:42 19,4 C 83 % 1013,5 hPa 0,0 l/m 3,1 km/h (1 Bft) N-NO 20 2 min 0,000 mm 1,6 UV-I 428 W/m 16,4 C 19,4 C 4,8 km/h (1 Bft) 98,00 %
21.07.2016 08:44 19,4 C 81 % 1013,5 hPa 0,0 l/m 1,4 km/h (1 Bft) NO 40 2 min 0,000 mm 1,5 UV-I 337 W/m 16,1 C 19,4 C 3,2 km/h (1 Bft) 100,00 %
21.07.2016 08:46 19,4 C 80 % 1013,5 hPa 0,0 l/m 3,7 km/h (1 Bft) NO 41 2 min 0,000 mm 1,5 UV-I 337 W/m 15,9 C 19,4 C 4,8 km/h (1 Bft) 100,00 %
21.07.2016 08:48 19,5 C 81 % 1013,5 hPa 0,0 l/m 1,8 km/h (1 Bft) NO 41 0 min 0,000 mm 1,4 UV-I 274 W/m 16,1 C 19,5 C 4,8 km/h (1 Bft) 97,87 %
21.07.2016 08:50 19,5 C 81 % 1013,5 hPa 0,0 l/m 1,4 km/h (1 Bft) NO 38 0 min 0,000 mm 1,4 UV-I 257 W/m 16,1 C 19,5 C 4,8 km/h (1 Bft) 97,87 %
21.07.2016 08:52 19,6 C 82 % 1013,5 hPa 0,0 l/m 1,8 km/h (1 Bft) NO 38 0 min 0,000 mm 1,8 UV-I 251 W/m 16,4 C 19,6 C 4,8 km/h (1 Bft) 97,87 %
21.07.2016 08:54 19,7 C 80 % 1013,6 hPa 0,0 l/m 2,1 km/h (1 Bft) NO 38 2 min 0,000 mm 1,9 UV-I 462 W/m 16,1 C 19,7 C 4,8 km/h (1 Bft) 100,00 %
21.07.2016 08:56 19,7 C 80 % 1013,6 hPa 0,0 l/m 2,3 km/h (1 Bft) NO 47 2 min 0,000 mm 1,8 UV-I 367 W/m 16,1 C 19,7 C 4,8 km/h (1 Bft) 100,00 %
21.07.2016 08:58 19,7 C 80 % 1013,6 hPa 0,0 l/m 1,0 km/h (0 Bft) O-SO 105 2 min 0,000 mm 1,8 UV-I 342 W/m 16,1 C 19,7 C 1,6 km/h (1 Bft) 100,00 %
21.07.2016 09:00 19,7 C 82 % 1013,6 hPa 0,0 l/m 2,4 km/h (1 Bft) O 83 2 min 0,152 mm 1,7 UV-I 307 W/m 16,5 C 19,7 C 4,8 km/h (1 Bft) 97,87 %
21.07.2016 09:02 19,8 C 81 % 1013,6 hPa 0,0 l/m 0,5 km/h (0 Bft) O-NO 70 2 min 0,000 mm 1,9 UV-I 362 W/m 16,4 C 19,8 C 3,2 km/h (1 Bft) 97,87 %
21.07.2016 09:04 19,9 C 81 % 1013,6 hPa 0,0 l/m 1,9 km/h (1 Bft) O-NO 69 0 min 0,000 mm 1,9 UV-I 277 W/m 16,5 C 19,9 C 3,2 km/h (1 Bft) 98,00 %
21.07.2016 09:06 20,1 C 81 % 1013,6 hPa 0,0 l/m 1,9 km/h (1 Bft) O-NO 69 0 min 0,000 mm 2,1 UV-I 282 W/m 16,7 C 20,1 C 4,8 km/h (1 Bft) 98,00 %
21.07.2016 09:08 20,1 C 80 % 1013,6 hPa 0,0 l/m 2,1 km/h (1 Bft) NO 43 2 min 0,000 mm 2,3 UV-I 423 W/m 16,5 C 20,1 C 6,4 km/h (2 Bft) 96,00 %
21.07.2016 09:10 20,3 C 81 % 1013,6 hPa 0,0 l/m 3,9 km/h (1 Bft) NO 51 2 min 0,000 mm 2,4 UV-I 442 W/m 16,9 C 20,3 C 6,4 km/h (2 Bft) 100,00 %
21.07.2016 09:12 20,4 C 79 % 1013,6 hPa 0,0 l/m 4,9 km/h (1 Bft) O-NO 63 2 min 0,000 mm 2,5 UV-I 435 W/m 16,6 C 20,4 C 6,4 km/h (2 Bft) 93,62 %
21.07.2016 09:14 20,6 C 80 % 1013,6 hPa 0,0 l/m 2,5 km/h (1 Bft) NO 41 2 min 0,000 mm 2,5 UV-I 428 W/m 17,0 C 20,6 C 4,8 km/h (1 Bft) 93,62 %
21.07.2016 09:16 20,6 C 79 % 1013,7 hPa 0,0 l/m 2,7 km/h (1 Bft) NO 38 2 min 0,000 mm 2,6 UV-I 426 W/m 16,8 C 20,6 C 6,4 km/h (2 Bft) 97,87 %
21.07.2016 09:18 20,8 C 79 % 1013,6 hPa 0,0 l/m 3,5 km/h (1 Bft) NO 48 2 min 0,000 mm 2,6 UV-I 397 W/m 17,0 C 20,8 C 6,4 km/h (2 Bft) 95,74 %
21.07.2016 09:20 20,8 C 77 % 1013,6 hPa 0,0 l/m 1,8 km/h (1 Bft) O 90 2 min 0,000 mm 2,6 UV-I 389 W/m 16,6 C 20,8 C 4,8 km/h (1 Bft) 97,87 %
21.07.2016 09:22 20,8 C 79 % 1013,6 hPa 0,0 l/m 3,9 km/h (1 Bft) O-NO 63 2 min 0,000 mm 2,7 UV-I 419 W/m 17,0 C 20,8 C 6,4 km/h (2 Bft) 98,00 %
21.07.2016 09:24 20,8 C 77 % 1013,6 hPa 0,0 l/m 2,8 km/h (1 Bft) O 82 2 min 0,000 mm 2,8 UV-I 433 W/m 16,6 C 20,8 C 4,8 km/h (1 Bft) 95,74 %
21.07.2016 09:26 20,8 C 79 % 1013,6 hPa 0,0 l/m 1,1 km/h (1 Bft) O 82 2 min 0,000 mm 2,9 UV-I 439 W/m 17,0 C 20,8 C 3,2 km/h (1 Bft) 97,92 %
21.07.2016 09:28 20,9 C 77 % 1013,7 hPa 0,0 l/m 1,2 km/h (1 Bft) O 81 2 min 0,000 mm 2,9 UV-I 447 W/m 16,7 C 20,9 C 4,8 km/h (1 Bft) 95,74 %
21.07.2016 09:30 21,1 C 76 % 1013,7 hPa 0,0 l/m 0,7 km/h (0 Bft) O 81 2 min 0,000 mm 3,0 UV-I 457 W/m 16,7 C 21,1 C 3,2 km/h (1 Bft) 95,74 %
21.07.2016 09:32 21,2 C 78 % 1013,7 hPa 0,0 l/m 1,1 km/h (1 Bft) N-NW 338 2 min 0,000 mm 3,0 UV-I 474 W/m 17,2 C 21,2 C 3,2 km/h (1 Bft) 97,87 %
21.07.2016 09:34 21,2 C 75 % 1013,7 hPa 0,0 l/m 2,4 km/h (1 Bft) W-NW 295 2 min 0,000 mm 3,1 UV-I 490 W/m 16,6 C 21,2 C 4,8 km/h (1 Bft) 97,87 %
21.07.2016 09:36 21,2 C 77 % 1013,8 hPa 0,0 l/m 1,2 km/h (1 Bft) W-NW 295 2 min 0,000 mm 3,1 UV-I 505 W/m 17,0 C 21,2 C 1,6 km/h (1 Bft) 100,00 %
21.07.2016 09:38 21,4 C 78 % 1013,7 hPa 0,0 l/m 2,4 km/h (1 Bft) W-NW 290 2 min 0,000 mm 3,2 UV-I 523 W/m 17,4 C 21,4 C 3,2 km/h (1 Bft) 100,00 %
21.07.2016 09:40 21,5 C 75 % 1013,7 hPa 0,0 l/m 0,9 km/h (0 Bft) W-NW 290 2 min 0,000 mm 3,3 UV-I 540 W/m 16,9 C 21,5 C 3,2 km/h (1 Bft) 95,74 %
21.07.2016 09:42 21,7 C 76 % 1013,8 hPa 0,0 l/m 3,4 km/h (1 Bft) N-NO 26 2 min 0,000 mm 3,3 UV-I 556 W/m 17,3 C 21,7 C 6,4 km/h (2 Bft) 97,87 %
21.07.2016 09:44 21,8 C 74 % 1013,8 hPa 0,0 l/m 3,9 km/h (1 Bft) NO 40 2 min 0,000 mm 3,4 UV-I 572 W/m 17,0 C 21,8 C 6,4 km/h (2 Bft) 97,87 %
21.07.2016 09:46 22,0 C 74 % 1013,8 hPa 0,0 l/m 2,4 km/h (1 Bft) NO 50 2 min 0,000 mm 3,4 UV-I 586 W/m 17,1 C 22,0 C 4,8 km/h (1 Bft) 97,87 %
21.07.2016 09:48 22,0 C 74 % 1013,8 hPa 0,0 l/m 1,8 km/h (1 Bft) NO 50 2 min 0,000 mm 3,5 UV-I 597 W/m 17,1 C 22,0 C 3,2 km/h (1 Bft) 100,00 %
21.07.2016 09:50 22,1 C 75 % 1013,9 hPa 0,0 l/m 0,9 km/h (0 Bft) W-NW 300 2 min 0,000 mm 3,5 UV-I 605 W/m 17,5 C 22,1 C 3,2 km/h (1 Bft) 95,74 %
21.07.2016 09:52 22,1 C 74 % 1013,9 hPa 0,0 l/m 4,8 km/h (1 Bft) W 273 2 min 0,000 mm 3,6 UV-I 611 W/m 17,2 C 22,1 C 6,4 km/h (2 Bft) 100,00 %
21.07.2016 09:54 22,1 C 74 % 1014,0 hPa 0,0 l/m 5,5 km/h (1 Bft) W 273 2 min 0,000 mm 3,7 UV-I 619 W/m 17,2 C 22,1 C 6,4 km/h (2 Bft) 100,00 %
21.07.2016 09:56 22,0 C 73 % 1014,0 hPa 0,0 l/m 4,3 km/h (1 Bft) W 271 2 min 0,000 mm 3,7 UV-I 628 W/m 16,9 C 22,0 C 6,4 km/h (2 Bft) 97,87 %
21.07.2016 09:58 22,2 C 76 % 1014,1 hPa 0,0 l/m 1,0 km/h (0 Bft) SW 236 2 min 0,000 mm 3,8 UV-I 636 W/m 17,8 C 22,2 C 4,8 km/h (1 Bft) 100,00 %
21.07.2016 10:00 22,3 C 70 % 1014,2 hPa 0,0 l/m 3,2 km/h (1 Bft) W-SW 239 2 min 0,305 mm 3,9 UV-I 642 W/m 16,6 C 22,3 C 4,8 km/h (1 Bft) 100,00 %
21.07.2016 10:02 22,4 C 70 % 1014,5 hPa 0,0 l/m 6,7 km/h (2 Bft) SW 221 2 min 0,000 mm 3,9 UV-I 652 W/m 16,7 C 22,3 C 9,7 km/h (2 Bft) 97,87 %
21.07.2016 10:04 22,6 C 72 % 1014,6 hPa 0,0 l/m 7,9 km/h (2 Bft) W-SW 238 2 min 0,000 mm 4,0 UV-I 657 W/m 17,3 C 22,1 C 14,5 km/h (3 Bft) 100,00 %
21.07.2016 10:06 22,7 C 70 % 1014,8 hPa 0,0 l/m 13,5 km/h (3 Bft) SW 232 2 min 0,000 mm 3,8 UV-I 702 W/m 16,9 C 20,8 C 22,5 km/h (4 Bft) 97,44 %
21.07.2016 10:08 22,8 C 70 % 1014,8 hPa 0,0 l/m 17,8 km/h (3 Bft) W-SW 257 2 min 0,000 mm 3,8 UV-I 689 W/m 17,0 C 20,2 C 25,7 km/h (4 Bft) 100,00 %
21.07.2016 10:10 22,9 C 70 % 1014,7 hPa 0,0 l/m 13,5 km/h (3 Bft) SW 225 2 min 0,000 mm 4,0 UV-I 713 W/m 17,1 C 21,1 C 22,5 km/h (4 Bft) 100,00 %
21.07.2016 10:12 23,1 C 68 % 1014,7 hPa 0,0 l/m 14,1 km/h (3 Bft) W-SW 250 2 min 0,000 mm 4,4 UV-I 753 W/m 16,9 C 21,2 C 22,5 km/h (4 Bft) 97,87 %
21.07.2016 10:14 23,1 C 69 % 1014,8 hPa 0,0 l/m 11,5 km/h (2 Bft) W-SW 240 2 min 0,000 mm 4,5 UV-I 779 W/m 17,1 C 21,7 C 17,7 km/h (3 Bft) 100,00 %
21.07.2016 10:16 23,2 C 69 % 1014,7 hPa 0,0 l/m 7,8 km/h (2 Bft) S 187 2 min 0,000 mm 4,4 UV-I 779 W/m 17,2 C 22,8 C 14,5 km/h (3 Bft) 100,00 %
21.07.2016 10:18 23,6 C 71 % 1014,6 hPa 0,0 l/m 2,5 km/h (1 Bft) S-SW 210 2 min 0,000 mm 4,4 UV-I 746 W/m 18,0 C 23,6 C 6,4 km/h (2 Bft) 100,00 %
21.07.2016 10:20 23,8 C 67 % 1014,5 hPa 0,0 l/m 5,0 km/h (1 Bft) NW 304 2 min 0,000 mm 4,2 UV-I 681 W/m 17,3 C 23,8 C 9,7 km/h (2 Bft) 100,00 %
21.07.2016 10:22 23,7 C 67 % 1014,6 hPa 0,0 l/m 6,4 km/h (2 Bft) SW 223 2 min 0,000 mm 4,1 UV-I 719 W/m 17,2 C 23,7 C 12,9 km/h (3 Bft) 100,00 %
21.07.2016 10:24 23,8 C 66 % 1014,7 hPa 0,0 l/m 11,3 km/h (2 Bft) S 178 2 min 0,000 mm 4,5 UV-I 741 W/m 17,1 C 22,6 C 17,7 km/h (3 Bft) 100,00 %
21.07.2016 10:26 23,7 C 63 % 1014,8 hPa 0,0 l/m 13,9 km/h (3 Bft) SW 225 2 min 0,000 mm 4,0 UV-I 687 W/m 16,2 C 21,9 C 20,9 km/h (4 Bft) 97,87 %
21.07.2016 10:28 23,6 C 63 % 1014,8 hPa 0,0 l/m 13,1 km/h (3 Bft) SW 233 2 min 0,000 mm 4,1 UV-I 506 W/m 16,1 C 22,0 C 19,3 km/h (3 Bft) 100,00 %
21.07.2016 10:30 23,4 C 65 % 1014,8 hPa 0,0 l/m 9,1 km/h (2 Bft) W 270 2 min 0,000 mm 3,9 UV-I 496 W/m 16,4 C 22,6 C 14,5 km/h (3 Bft) 100,00 %
21.07.2016 10:32 23,4 C 65 % 1014,7 hPa 0,0 l/m 12,6 km/h (3 Bft) W-SW 257 2 min 0,000 mm 4,2 UV-I 505 W/m 16,4 C 21,8 C 19,3 km/h (3 Bft) 100,00 %
21.07.2016 10:34 23,3 C 65 % 1014,8 hPa 0,0 l/m 13,9 km/h (3 Bft) SW 217 2 min 0,000 mm 4,1 UV-I 541 W/m 16,3 C 21,4 C 20,9 km/h (4 Bft) 100,00 %
21.07.2016 10:36 23,4 C 65 % 1014,8 hPa 0,0 l/m 13,9 km/h (3 Bft) W-SW 250 2 min 0,000 mm 3,9 UV-I 540 W/m 16,4 C 21,6 C 19,3 km/h (3 Bft) 100,00 %
21.07.2016 10:38 23,4 C 65 % 1014,8 hPa 0,0 l/m 8,9 km/h (2 Bft) W 269 2 min 0,000 mm 4,0 UV-I 535 W/m 16,4 C 22,7 C 16,1 km/h (3 Bft) 97,87 %
21.07.2016 10:40 23,6 C 66 % 1014,8 hPa 0,0 l/m 14,0 km/h (3 Bft) W 261 2 min 0,000 mm 4,2 UV-I 516 W/m 16,9 C 21,8 C 19,3 km/h (3 Bft) 100,00 %
21.07.2016 10:42 23,6 C 65 % 1014,7 hPa 0,0 l/m 12,1 km/h (2 Bft) W 267 2 min 0,000 mm 4,0 UV-I 458 W/m 16,6 C 22,2 C 19,3 km/h (3 Bft) 100,00 %
21.07.2016 10:44 23,6 C 64 % 1014,8 hPa 0,0 l/m 10,2 km/h (2 Bft) SW 222 2 min 0,000 mm 4,9 UV-I 483 W/m 16,4 C 22,6 C 17,7 km/h (3 Bft) 97,92 %
21.07.2016 10:46 23,7 C 64 % 1014,8 hPa 0,0 l/m 8,8 km/h (2 Bft) W 270 2 min 0,000 mm 4,1 UV-I 617 W/m 16,5 C 23,0 C 14,5 km/h (3 Bft) 97,87 %
21.07.2016 10:48 23,8 C 65 % 1014,8 hPa 0,0 l/m 13,6 km/h (3 Bft) W-SW 244 2 min 0,000 mm 4,3 UV-I 537 W/m 16,8 C 22,1 C 17,7 km/h (3 Bft) 97,87 %
21.07.2016 10:50 24,0 C 64 % 1014,8 hPa 0,0 l/m 14,5 km/h (3 Bft) W 269 2 min 0,000 mm 4,4 UV-I 616 W/m 16,8 C 22,2 C 19,3 km/h (3 Bft) 97,87 %
21.07.2016 10:52 24,1 C 64 % 1014,8 hPa 0,0 l/m 12,3 km/h (3 Bft) W 271 2 min 0,000 mm 4,4 UV-I 638 W/m 16,9 C 22,7 C 19,3 km/h (3 Bft) 97,87 %
21.07.2016 10:54 24,2 C 63 % 1014,8 hPa 0,0 l/m 9,1 km/h (2 Bft) S 186 2 min 0,000 mm 4,1 UV-I 540 W/m 16,7 C 23,5 C 14,5 km/h (3 Bft) 100,00 %
21.07.2016 10:56 24,3 C 64 % 1014,8 hPa 0,0 l/m 11,7 km/h (2 Bft) W-SW 254 2 min 0,000 mm 4,2 UV-I 557 W/m 17,0 C 23,0 C 17,7 km/h (3 Bft) 97,87 %
21.07.2016 10:58 24,3 C 64 % 1014,8 hPa 0,0 l/m 6,6 km/h (2 Bft) W-NW 287 2 min 0,000 mm 3,9 UV-I 489 W/m 17,0 C 24,3 C 16,1 km/h (3 Bft) 97,87 %
21.07.2016 11:00 24,3 C 64 % 1014,8 hPa 0,0 l/m 7,7 km/h (2 Bft) W-NW 297 2 min 0,000 mm 4,0 UV-I 442 W/m 17,0 C 23,9 C 14,5 km/h (3 Bft) 97,87 %
21.07.2016 11:02 24,4 C 64 % 1014,8 hPa 0,0 l/m 9,2 km/h (2 Bft) W-NW 289 2 min 0,432 mm 5,1 UV-I 464 W/m 17,1 C 23,7 C 17,7 km/h (3 Bft) 96,00 %
21.07.2016 11:04 24,6 C 63 % 1014,8 hPa 0,0 l/m 14,3 km/h (3 Bft) W 263 2 min 0,000 mm 5,4 UV-I 603 W/m 17,1 C 22,9 C 20,9 km/h (4 Bft) 97,37 %
21.07.2016 11:06 24,7 C 63 % 1014,8 hPa 0,0 l/m 12,5 km/h (3 Bft) W-SW 238 2 min 0,000 mm 5,8 UV-I 865 W/m 17,2 C 23,4 C 19,3 km/h (3 Bft) 98,00 %
21.07.2016 11:08 24,8 C 63 % 1014,8 hPa 0,0 l/m 9,4 km/h (2 Bft) W 264 2 min 0,000 mm 4,9 UV-I 643 W/m 17,3 C 24,1 C 19,3 km/h (3 Bft) 98,00 %
21.07.2016 11:10 24,9 C 65 % 1014,8 hPa 0,0 l/m 5,2 km/h (1 Bft) SW 219 2 min 0,000 mm 5,6 UV-I 818 W/m 17,9 C 24,9 C 12,9 km/h (3 Bft) 95,74 %
21.07.2016 11:12 25,3 C 63 % 1014,8 hPa 0,0 l/m 8,8 km/h (2 Bft) W-SW 242 2 min 0,000 mm 5,2 UV-I 899 W/m 17,7 C 24,7 C 14,5 km/h (3 Bft) 95,74 %
21.07.2016 11:14 25,5 C 63 % 1014,8 hPa 0,0 l/m 7,9 km/h (2 Bft) SW 236 2 min 0,000 mm 4,6 UV-I 784 W/m 17,9 C 25,1 C 12,9 km/h (3 Bft) 95,74 %
21.07.2016 11:16 25,4 C 62 % 1014,9 hPa 0,0 l/m 10,3 km/h (2 Bft) S-SW 199 2 min 0,000 mm 3,7 UV-I 490 W/m 17,6 C 24,5 C 22,5 km/h (4 Bft) 95,74 %
21.07.2016 11:18 25,4 C 61 % 1014,9 hPa 0,0 l/m 9,9 km/h (2 Bft) SW 222 0 min 0,000 mm 3,7 UV-I 434 W/m 17,3 C 24,6 C 24,1 km/h (4 Bft) 97,56 %
21.07.2016 11:20 25,3 C 62 % 1014,9 hPa 0,0 l/m 19,0 km/h (3 Bft) SW 223 2 min 0,000 mm 4,2 UV-I 510 W/m 17,5 C 23,2 C 30,6 km/h (5 Bft) 95,74 %
21.07.2016 11:22 25,3 C 62 % 1015,0 hPa 0,0 l/m 18,7 km/h (3 Bft) SW 215 2 min 0,000 mm 3,9 UV-I 472 W/m 17,5 C 23,2 C 37,0 km/h (5 Bft) 98,00 %
21.07.2016 11:24 25,3 C 62 % 1014,9 hPa 0,0 l/m 22,0 km/h (4 Bft) SW 229 2 min 0,000 mm 4,1 UV-I 504 W/m 17,5 C 22,8 C 32,2 km/h (5 Bft) 91,67 %
21.07.2016 11:26 25,2 C 61 % 1015,0 hPa 0,0 l/m 24,3 km/h (4 Bft) SW 221 2 min 0,000 mm 4,3 UV-I 539 W/m 17,1 C 22,5 C 35,4 km/h (5 Bft) 95,74 %
21.07.2016 11:28 25,0 C 62 % 1015,0 hPa 0,0 l/m 22,3 km/h (4 Bft) SW 219 2 min 0,000 mm 4,2 UV-I 530 W/m 17,2 C 22,4 C 33,8 km/h (5 Bft) 97,87 %
21.07.2016 11:30 24,8 C 62 % 1015,1 hPa 0,0 l/m 19,6 km/h (3 Bft) W-SW 244 2 min 0,000 mm 3,8 UV-I 486 W/m 17,0 C 22,5 C 30,6 km/h (5 Bft) 93,62 %
21.07.2016 11:32 24,8 C 64 % 1015,1 hPa 0,0 l/m 20,9 km/h (4 Bft) W-SW 249 0 min 0,000 mm 3,2 UV-I 400 W/m 17,5 C 22,3 C 37,0 km/h (5 Bft) 100,00 %
21.07.2016 11:34 24,7 C 63 % 1015,1 hPa 0,0 l/m 25,9 km/h (4 Bft) W-SW 250 0 min 0,000 mm 2,8 UV-I 333 W/m 17,2 C 21,7 C 37,0 km/h (5 Bft) 97,87 %
21.07.2016 11:36 24,6 C 64 % 1015,1 hPa 0,0 l/m 16,9 km/h (3 Bft) SW 220 0 min 0,000 mm 2,2 UV-I 271 W/m 17,3 C 22,5 C 29,0 km/h (5 Bft) 100,00 %
21.07.2016 11:38 24,4 C 64 % 1015,2 hPa 0,0 l/m 18,5 km/h (3 Bft) SW 232 0 min 0,000 mm 1,7 UV-I 212 W/m 17,1 C 22,1 C 30,6 km/h (5 Bft) 100,00 %
21.07.2016 11:40 24,2 C 64 % 1015,2 hPa 0,0 l/m 20,2 km/h (4 Bft) SW 226 0 min 0,000 mm 1,6 UV-I 193 W/m 16,9 C 21,6 C 43,5 km/h (6 Bft) 97,37 %
21.07.2016 11:42 24,1 C 65 % 1015,2 hPa 0,0 l/m 14,1 km/h (3 Bft) SW 226 0 min 0,000 mm 1,6 UV-I 201 W/m 17,1 C 22,4 C 25,7 km/h (4 Bft) 100,00 %
21.07.2016 11:44 24,1 C 66 % 1015,3 hPa 0,0 l/m 18,4 km/h (3 Bft) W-SW 244 0 min 0,000 mm 1,9 UV-I 234 W/m 17,3 C 21,7 C 32,2 km/h (5 Bft) 100,00 %
21.07.2016 11:46 24,1 C 66 % 1015,4 hPa 0,0 l/m 14,5 km/h (3 Bft) W-SW 240 0 min 0,000 mm 2,1 UV-I 249 W/m 17,3 C 22,3 C 22,5 km/h (4 Bft) 95,74 %
21.07.2016 11:48 24,1 C 66 % 1015,4 hPa 0,0 l/m 20,1 km/h (4 Bft) W 260 0 min 0,000 mm 2,0 UV-I 245 W/m 17,3 C 21,5 C 35,4 km/h (5 Bft) 97,87 %
21.07.2016 11:50 24,1 C 64 % 1015,4 hPa 0,0 l/m 18,1 km/h (3 Bft) SW 220 0 min 0,000 mm 2,5 UV-I 288 W/m 16,9 C 21,8 C 27,4 km/h (4 Bft) 100,00 %
21.07.2016 11:52 24,0 C 66 % 1015,3 hPa 0,0 l/m 16,8 km/h (3 Bft) W-SW 252 0 min 0,000 mm 3,2 UV-I 361 W/m 17,2 C 21,8 C 22,5 km/h (4 Bft) 100,00 %
21.07.2016 11:54 24,1 C 65 % 1015,4 hPa 0,0 l/m 16,1 km/h (3 Bft) SW 215 0 min 0,000 mm 3,7 UV-I 445 W/m 17,1 C 22,0 C 27,4 km/h (4 Bft) 97,87 %
21.07.2016 11:56 24,1 C 65 % 1015,4 hPa 0,0 l/m 21,9 km/h (4 Bft) SO 130 0 min 0,000 mm 3,8 UV-I 438 W/m 17,1 C 21,3 C 33,8 km/h (5 Bft) 97,87 %
21.07.2016 11:58 23,9 C 65 % 1015,4 hPa 0,0 l/m 23,0 km/h (4 Bft) SW 236 0 min 0,000 mm 3,9 UV-I 421 W/m 16,9 C 20,9 C 32,2 km/h (5 Bft) 100,00 %
21.07.2016 12:00 24,0 C 66 % 1015,5 hPa 0,0 l/m 20,3 km/h (4 Bft) SW 226 2 min 0,381 mm 4,3 UV-I 480 W/m 17,2 C 21,3 C 30,6 km/h (5 Bft) 97,87 %
21.07.2016 12:02 24,1 C 66 % 1015,5 hPa 0,0 l/m 19,7 km/h (3 Bft) SW 224 2 min 0,000 mm 4,7 UV-I 519 W/m 17,3 C 21,5 C 32,2 km/h (5 Bft) 100,00 %
21.07.2016 12:04 24,2 C 65 % 1015,5 hPa 0,0 l/m 21,0 km/h (4 Bft) W-SW 238 2 min 0,000 mm 5,0 UV-I 615 W/m 17,2 C 21,5 C 32,2 km/h (5 Bft) 100,00 %
21.07.2016 12:06 24,3 C 64 % 1015,4 hPa 0,0 l/m 19,5 km/h (3 Bft) SW 229 2 min 0,000 mm 5,5 UV-I 578 W/m 17,0 C 21,8 C 29,0 km/h (5 Bft) 97,87 %
21.07.2016 12:08 24,5 C 64 % 1015,4 hPa 0,0 l/m 19,2 km/h (3 Bft) SW 224 2 min 0,000 mm 5,9 UV-I 620 W/m 17,2 C 22,1 C 29,0 km/h (5 Bft) 97,87 %
21.07.2016 12:10 24,6 C 62 % 1015,4 hPa 0,0 l/m 29,5 km/h (5 Bft) W-SW 250 2 min 0,000 mm 5,9 UV-I 676 W/m 16,8 C 21,2 C 43,5 km/h (6 Bft) 100,00 %
21.07.2016 12:12 24,6 C 62 % 1015,4 hPa 0,0 l/m 24,2 km/h (4 Bft) W-SW 250 2 min 0,000 mm 6,0 UV-I 724 W/m 16,8 C 21,7 C 33,8 km/h (5 Bft) 100,00 %
21.07.2016 12:14 24,6 C 63 % 1015,4 hPa 0,0 l/m 24,5 km/h (4 Bft) W-SW 248 2 min 0,000 mm 7,2 UV-I 857 W/m 17,1 C 21,7 C 35,4 km/h (5 Bft) 100,00 %
21.07.2016 12:16 24,7 C 63 % 1015,4 hPa 0,0 l/m 21,5 km/h (4 Bft) W-SW 253 2 min 0,000 mm 6,7 UV-I 1141 W/m 17,2 C 22,1 C 32,2 km/h (5 Bft) 98,00 %
21.07.2016 12:18 24,9 C 62 % 1015,4 hPa 0,0 l/m 18,5 km/h (3 Bft) W 271 2 min 0,000 mm 6,3 UV-I 928 W/m 17,1 C 22,7 C 29,0 km/h (5 Bft) 100,00 %
21.07.2016 12:20 25,1 C 62 % 1015,3 hPa 0,0 l/m 14,4 km/h (3 Bft) SW 233 2 min 0,000 mm 7,5 UV-I 1077 W/m 17,3 C 23,5 C 22,5 km/h (4 Bft) 100,00 %
21.07.2016 12:22 25,3 C 63 % 1015,3 hPa 0,0 l/m 13,3 km/h (3 Bft) W 263 2 min 0,000 mm 7,5 UV-I 1107 W/m 17,7 C 23,9 C 25,7 km/h (4 Bft) 100,00 %
21.07.2016 12:24 25,3 C 62 % 1015,4 hPa 0,0 l/m 18,3 km/h (3 Bft) W-NW 294 2 min 0,000 mm 7,4 UV-I 1097 W/m 17,5 C 23,2 C 25,7 km/h (4 Bft) 100,00 %
21.07.2016 12:26 25,3 C 61 % 1015,3 hPa 0,0 l/m 15,7 km/h (3 Bft) SW 234 2 min 0,000 mm 6,9 UV-I 1097 W/m 17,2 C 23,6 C 24,1 km/h (4 Bft) 94,44 %
21.07.2016 12:28 25,2 C 62 % 1015,3 hPa 0,0 l/m 13,3 km/h (3 Bft) W-SW 238 2 min 0,000 mm 5,0 UV-I 1097 W/m 17,4 C 23,8 C 24,1 km/h (4 Bft) 100,00 %
21.07.2016 12:30 25,2 C 63 % 1015,2 hPa 0,0 l/m 11,7 km/h (2 Bft) W 278 2 min 0,000 mm 3,6 UV-I 613 W/m 17,6 C 24,1 C 17,7 km/h (3 Bft) 97,87 %
21.07.2016 12:32 25,1 C 63 % 1015,3 hPa 0,0 l/m 12,0 km/h (2 Bft) W-SW 250 0 min 0,000 mm 3,4 UV-I 343 W/m 17,5 C 23,9 C 19,3 km/h (3 Bft) 95,74 %
21.07.2016 12:34 24,9 C 63 % 1015,3 hPa 0,0 l/m 15,2 km/h (3 Bft) S-SW 209 0 min 0,000 mm 3,8 UV-I 436 W/m 17,4 C 23,2 C 29,0 km/h (5 Bft) 98,00 %
21.07.2016 12:36 25,1 C 64 % 1015,2 hPa 0,0 l/m 13,4 km/h (3 Bft) W 267 0 min 0,000 mm 5,9 UV-I 469 W/m 17,8 C 23,7 C 20,9 km/h (4 Bft) 100,00 %
21.07.2016 12:38 25,3 C 62 % 1015,2 hPa 0,0 l/m 14,2 km/h (3 Bft) W 271 2 min 0,000 mm 5,2 UV-I 594 W/m 17,5 C 23,8 C 20,9 km/h (4 Bft) 98,00 %
21.07.2016 12:40 25,3 C 62 % 1015,2 hPa 0,0 l/m 13,7 km/h (3 Bft) W-SW 244 2 min 0,000 mm 5,1 UV-I 609 W/m 17,5 C 23,9 C 22,5 km/h (4 Bft) 97,87 %
21.07.2016 12:42 25,2 C 62 % 1015,2 hPa 0,0 l/m 15,7 km/h (3 Bft) W-SW 247 2 min 0,000 mm 4,3 UV-I 480 W/m 17,4 C 23,5 C 24,1 km/h (4 Bft) 100,00 %
21.07.2016 12:44 25,2 C 63 % 1015,2 hPa 0,0 l/m 13,7 km/h (3 Bft) W-SW 256 0 min 0,000 mm 4,0 UV-I 432 W/m 17,6 C 23,7 C 24,1 km/h (4 Bft) 100,00 %
21.07.2016 12:46 25,1 C 63 % 1015,2 hPa 0,0 l/m 13,8 km/h (3 Bft) W-SW 252 0 min 0,000 mm 3,9 UV-I 424 W/m 17,5 C 23,6 C 22,5 km/h (4 Bft) 100,00 %
21.07.2016 12:48 24,9 C 63 % 1015,2 hPa 0,0 l/m 17,7 km/h (3 Bft) W-SW 241 0 min 0,000 mm 3,7 UV-I 414 W/m 17,4 C 22,8 C 24,1 km/h (4 Bft) 100,00 %
21.07.2016 12:50 24,8 C 64 % 1015,1 hPa 0,0 l/m 12,6 km/h (3 Bft) SW 223 0 min 0,000 mm 3,5 UV-I 392 W/m 17,5 C 23,5 C 22,5 km/h (4 Bft) 100,00 %
21.07.2016 12:52 24,8 C 63 % 1015,1 hPa 0,0 l/m 12,2 km/h (2 Bft) W-SW 244 0 min 0,000 mm 3,4 UV-I 381 W/m 17,3 C 23,5 C 19,3 km/h (3 Bft) 100,00 %
21.07.2016 12:54 24,7 C 63 % 1015,0 hPa 0,0 l/m 14,8 km/h (3 Bft) W 275 0 min 0,000 mm 3,5 UV-I 396 W/m 17,2 C 23,0 C 22,5 km/h (4 Bft) 95,74 %
21.07.2016 12:56 24,5 C 63 % 1015,0 hPa 0,0 l/m 13,8 km/h (3 Bft) W-SW 239 0 min 0,000 mm 3,4 UV-I 378 W/m 17,0 C 22,9 C 20,9 km/h (4 Bft) 97,87 %
21.07.2016 12:58 24,4 C 64 % 1015,0 hPa 0,0 l/m 16,1 km/h (3 Bft) W-SW 248 0 min 0,000 mm 3,3 UV-I 353 W/m 17,1 C 22,4 C 24,1 km/h (4 Bft) 97,87 %
21.07.2016 13:00 24,3 C 64 % 1015,0 hPa 0,0 l/m 14,9 km/h (3 Bft) W 278 0 min 0,483 mm 3,0 UV-I 331 W/m 17,0 C 22,5 C 20,9 km/h (4 Bft) 97,37 %
21.07.2016 13:02 24,2 C 65 % 1015,0 hPa 0,0 l/m 14,4 km/h (3 Bft) W 264 0 min 0,000 mm 2,9 UV-I 316 W/m 17,2 C 22,4 C 22,5 km/h (4 Bft) 95,74 %
21.07.2016 13:04 24,2 C 66 % 1014,9 hPa 0,0 l/m 13,3 km/h (3 Bft) W-SW 245 0 min 0,000 mm 2,9 UV-I 312 W/m 17,4 C 22,6 C 24,1 km/h (4 Bft) 98,00 %
21.07.2016 13:06 24,2 C 65 % 1014,9 hPa 0,0 l/m 13,7 km/h (3 Bft) W-SW 256 0 min 0,000 mm 3,0 UV-I 320 W/m 17,2 C 22,6 C 24,1 km/h (4 Bft) 97,87 %
21.07.2016 13:08 24,1 C 66 % 1014,9 hPa 0,0 l/m 12,7 km/h (3 Bft) W-NW 293 0 min 0,000 mm 3,1 UV-I 345 W/m 17,3 C 22,6 C 16,1 km/h (3 Bft) 97,87 %
21.07.2016 13:10 24,1 C 66 % 1014,9 hPa 0,0 l/m 12,4 km/h (3 Bft) W-SW 253 0 min 0,000 mm 3,2 UV-I 358 W/m 17,3 C 22,7 C 17,7 km/h (3 Bft) 95,74 %
21.07.2016 13:12 24,1 C 66 % 1014,9 hPa 0,0 l/m 12,6 km/h (3 Bft) W-SW 250 0 min 0,000 mm 3,3 UV-I 367 W/m 17,3 C 22,6 C 17,7 km/h (3 Bft) 93,62 %
21.07.2016 13:14 24,1 C 66 % 1014,9 hPa 0,0 l/m 8,5 km/h (2 Bft) W 263 0 min 0,000 mm 3,3 UV-I 383 W/m 17,3 C 23,5 C 17,7 km/h (3 Bft) 95,74 %
21.07.2016 13:16 23,9 C 67 % 1014,9 hPa 0,0 l/m 12,6 km/h (3 Bft) W-SW 244 0 min 0,000 mm 3,1 UV-I 351 W/m 17,4 C 22,4 C 24,1 km/h (4 Bft) 97,56 %
21.07.2016 13:18 23,9 C 67 % 1014,9 hPa 0,0 l/m 11,0 km/h (2 Bft) S-SW 212 0 min 0,000 mm 2,9 UV-I 331 W/m 17,4 C 22,7 C 17,7 km/h (3 Bft) 95,83 %
21.07.2016 13:20 23,9 C 67 % 1014,9 hPa 0,0 l/m 12,6 km/h (3 Bft) W 262 0 min 0,000 mm 2,7 UV-I 297 W/m 17,4 C 22,4 C 19,3 km/h (3 Bft) 97,87 %
21.07.2016 13:22 23,8 C 67 % 1014,9 hPa 0,0 l/m 10,6 km/h (2 Bft) W-SW 239 0 min 0,000 mm 2,4 UV-I 269 W/m 17,3 C 22,7 C 17,7 km/h (3 Bft) 93,62 %
21.07.2016 13:24 23,8 C 68 % 1014,9 hPa 0,0 l/m 6,2 km/h (2 Bft) W 275 0 min 0,000 mm 2,2 UV-I 245 W/m 17,5 C 23,8 C 14,5 km/h (3 Bft) 98,00 %
21.07.2016 13:26 23,7 C 67 % 1014,9 hPa 0,0 l/m 13,2 km/h (3 Bft) W-SW 246 0 min 0,000 mm 2,1 UV-I 237 W/m 17,2 C 22,1 C 19,3 km/h (3 Bft) 100,00 %
21.07.2016 13:28 23,6 C 67 % 1014,9 hPa 0,0 l/m 11,9 km/h (2 Bft) W-SW 257 0 min 0,000 mm 2,1 UV-I 235 W/m 17,1 C 22,2 C 20,9 km/h (4 Bft) 98,00 %
21.07.2016 13:30 23,5 C 67 % 1014,8 hPa 0,0 l/m 12,5 km/h (3 Bft) W 260 0 min 0,000 mm 2,1 UV-I 240 W/m 17,0 C 22,0 C 20,9 km/h (4 Bft) 100,00 %
21.07.2016 13:32 23,4 C 68 % 1014,9 hPa 0,0 l/m 11,7 km/h (2 Bft) W 267 0 min 0,000 mm 2,1 UV-I 239 W/m 17,1 C 22,0 C 19,3 km/h (3 Bft) 100,00 %
21.07.2016 13:34 23,4 C 69 % 1014,9 hPa 0,0 l/m 7,6 km/h (2 Bft) W-SW 243 0 min 0,000 mm 1,9 UV-I 223 W/m 17,4 C 23,0 C 17,7 km/h (3 Bft) 100,00 %
21.07.2016 13:36 23,4 C 69 % 1015,0 hPa 0,0 l/m 10,8 km/h (2 Bft) W-SW 250 0 min 0,000 mm 1,8 UV-I 208 W/m 17,4 C 22,2 C 19,3 km/h (3 Bft) 97,87 %
21.07.2016 13:38 23,4 C 70 % 1014,9 hPa 0,0 l/m 10,5 km/h (2 Bft) S 175 0 min 0,000 mm 1,8 UV-I 206 W/m 17,6 C 22,3 C 17,7 km/h (3 Bft) 100,00 %
21.07.2016 13:40 23,3 C 70 % 1014,8 hPa 0,0 l/m 12,5 km/h (3 Bft) S 172 0 min 0,000 mm 1,9 UV-I 213 W/m 17,5 C 21,7 C 22,5 km/h (4 Bft) 100,00 %
21.07.2016 13:42 23,2 C 70 % 1014,8 hPa 0,0 l/m 13,9 km/h (3 Bft) S-SW 197 0 min 0,000 mm 1,8 UV-I 206 W/m 17,4 C 21,3 C 20,9 km/h (4 Bft) 100,00 %
21.07.2016 13:44 23,1 C 71 % 1014,8 hPa 0,0 l/m 11,6 km/h (2 Bft) SW 221 0 min 0,000 mm 1,7 UV-I 198 W/m 17,5 C 21,7 C 19,3 km/h (3 Bft) 100,00 %
21.07.2016 13:46 23,1 C 71 % 1014,8 hPa 0,0 l/m 11,2 km/h (2 Bft) S-SW 205 0 min 0,000 mm 1,6 UV-I 192 W/m 17,5 C 21,8 C 20,9 km/h (4 Bft) 96,77 %
21.07.2016 13:48 22,9 C 72 % 1014,8 hPa 0,0 l/m 12,4 km/h (3 Bft) SW 234 0 min 0,000 mm 1,6 UV-I 188 W/m 17,6 C 21,3 C 19,3 km/h (3 Bft) 100,00 %
21.07.2016 13:50 22,9 C 72 % 1014,7 hPa 0,0 l/m 13,0 km/h (3 Bft) S-SW 200 0 min 0,000 mm 1,6 UV-I 187 W/m 17,6 C 21,2 C 19,3 km/h (3 Bft) 97,87 %
21.07.2016 13:52 22,8 C 72 % 1014,7 hPa 0,0 l/m 11,0 km/h (2 Bft) S-SW 207 0 min 0,000 mm 1,5 UV-I 180 W/m 17,5 C 21,5 C 17,7 km/h (3 Bft) 100,00 %
21.07.2016 13:54 22,8 C 72 % 1014,6 hPa 0,0 l/m 9,6 km/h (2 Bft) S 182 0 min 0,000 mm 1,4 UV-I 174 W/m 17,5 C 21,8 C 16,1 km/h (3 Bft) 97,87 %
21.07.2016 13:56 22,7 C 72 % 1014,6 hPa 0,0 l/m 10,8 km/h (2 Bft) SW 227 0 min 0,000 mm 1,4 UV-I 177 W/m 17,4 C 21,4 C 16,1 km/h (3 Bft) 100,00 %
21.07.2016 13:58 22,7 C 72 % 1014,5 hPa 0,0 l/m 8,9 km/h (2 Bft) S-SW 202 0 min 0,000 mm 1,6 UV-I 195 W/m 17,4 C 21,9 C 14,5 km/h (3 Bft) 100,00 %
21.07.2016 14:00 22,7 C 73 % 1014,5 hPa 0,0 l/m 8,2 km/h (2 Bft) SW 228 0 min 0,203 mm 1,8 UV-I 210 W/m 17,6 C 22,1 C 12,9 km/h (3 Bft) 98,00 %
21.07.2016 14:02 22,7 C 74 % 1014,4 hPa 0,0 l/m 6,7 km/h (2 Bft) SW 215 0 min 0,000 mm 1,8 UV-I 221 W/m 17,8 C 22,6 C 11,3 km/h (2 Bft) 93,62 %
21.07.2016 14:04 22,7 C 75 % 1014,5 hPa 0,0 l/m 8,4 km/h (2 Bft) SW 236 0 min 0,000 mm 2,0 UV-I 231 W/m 18,0 C 22,1 C 12,9 km/h (3 Bft) 100,00 %
21.07.2016 14:06 22,6 C 74 % 1014,5 hPa 0,0 l/m 8,3 km/h (2 Bft) W-SW 249 0 min 0,000 mm 1,9 UV-I 232 W/m 17,7 C 22,0 C 12,9 km/h (3 Bft) 93,62 %
21.07.2016 14:08 22,7 C 76 % 1014,5 hPa 0,0 l/m 9,0 km/h (2 Bft) W 259 0 min 0,000 mm 2,0 UV-I 242 W/m 18,2 C 21,9 C 14,5 km/h (3 Bft) 100,00 %
21.07.2016 14:10 22,7 C 74 % 1014,5 hPa 0,0 l/m 7,7 km/h (2 Bft) W-SW 240 0 min 0,000 mm 2,3 UV-I 272 W/m 17,8 C 22,3 C 12,9 km/h (3 Bft) 100,00 %
21.07.2016 14:12 22,6 C 75 % 1014,4 hPa 0,0 l/m 7,8 km/h (2 Bft) S-SO 153 0 min 0,000 mm 2,4 UV-I 294 W/m 17,9 C 22,1 C 11,3 km/h (2 Bft) 100,00 %
21.07.2016 14:14 22,7 C 75 % 1014,4 hPa 0,0 l/m 7,0 km/h (2 Bft) S-SW 205 0 min 0,000 mm 2,4 UV-I 300 W/m 18,0 C 22,5 C 11,3 km/h (2 Bft) 100,00 %
21.07.2016 14:16 22,8 C 74 % 1014,4 hPa 0,0 l/m 6,7 km/h (2 Bft) W-SW 237 0 min 0,000 mm 2,6 UV-I 320 W/m 17,9 C 22,7 C 11,3 km/h (2 Bft) 100,00 %
21.07.2016 14:18 22,8 C 75 % 1014,3 hPa 0,0 l/m 6,2 km/h (2 Bft) W-SW 237 0 min 0,000 mm 2,9 UV-I 355 W/m 18,1 C 22,8 C 9,7 km/h (2 Bft) 97,87 %
21.07.2016 14:20 22,9 C 74 % 1014,3 hPa 0,0 l/m 2,8 km/h (1 Bft) S-SW 192 0 min 0,000 mm 3,1 UV-I 385 W/m 18,0 C 22,9 C 4,8 km/h (1 Bft) 100,00 %
21.07.2016 14:22 23,0 C 75 % 1014,2 hPa 0,0 l/m 5,5 km/h (1 Bft) SW 232 0 min 0,000 mm 3,2 UV-I 396 W/m 18,3 C 23,0 C 8,0 km/h (2 Bft) 100,00 %
21.07.2016 14:24 23,1 C 71 % 1014,1 hPa 0,0 l/m 1,8 km/h (1 Bft) S-SO 165 0 min 0,000 mm 3,2 UV-I 386 W/m 17,5 C 23,1 C 3,2 km/h (1 Bft) 100,00 %
21.07.2016 14:26 23,1 C 72 % 1014,1 hPa 0,0 l/m 5,8 km/h (2 Bft) SW 215 0 min 0,000 mm 3,1 UV-I 375 W/m 17,8 C 23,1 C 9,7 km/h (2 Bft) 97,87 %
21.07.2016 14:28 23,1 C 73 % 1014,0 hPa 0,0 l/m 6,5 km/h (2 Bft) W-SW 240 0 min 0,000 mm 3,1 UV-I 385 W/m 18,0 C 23,1 C 9,7 km/h (2 Bft) 97,87 %
21.07.2016 14:30 23,2 C 70 % 1014,1 hPa 0,0 l/m 6,2 km/h (2 Bft) W-SW 238 0 min 0,000 mm 3,2 UV-I 394 W/m 17,4 C 23,2 C 11,3 km/h (2 Bft) 97,87 %
21.07.2016 14:32 23,3 C 69 % 1014,1 hPa 0,0 l/m 7,5 km/h (2 Bft) SW 220 0 min 0,000 mm 3,2 UV-I 385 W/m 17,3 C 23,0 C 11,3 km/h (2 Bft) 100,00 %
21.07.2016 14:34 23,3 C 69 % 1014,1 hPa 0,0 l/m 6,0 km/h (2 Bft) SW 228 0 min 0,000 mm 3,3 UV-I 380 W/m 17,3 C 23,3 C 9,7 km/h (2 Bft) 100,00 %
21.07.2016 14:36 23,4 C 72 % 1014,1 hPa 0,0 l/m 3,9 km/h (1 Bft) SW 228 0 min 0,000 mm 3,3 UV-I 386 W/m 18,1 C 23,4 C 6,4 km/h (2 Bft) 100,00 %
21.07.2016 14:38 23,5 C 68 % 1014,1 hPa 0,0 l/m 6,0 km/h (2 Bft) NW 321 0 min 0,000 mm 3,4 UV-I 397 W/m 17,2 C 23,5 C 9,7 km/h (2 Bft) 100,00 %
21.07.2016 14:40 23,6 C 70 % 1013,9 hPa 0,0 l/m 3,4 km/h (1 Bft) NW 315 0 min 0,000 mm 3,4 UV-I 405 W/m 17,8 C 23,6 C 6,4 km/h (2 Bft) 98,00 %
21.07.2016 14:42 23,6 C 68 % 1014,0 hPa 0,0 l/m 2,5 km/h (1 Bft) NW 308 0 min 0,000 mm 3,4 UV-I 405 W/m 17,3 C 23,6 C 4,8 km/h (1 Bft) 100,00 %
21.07.2016 14:44 23,7 C 69 % 1013,9 hPa 0,0 l/m 3,2 km/h (1 Bft) W-NW 289 0 min 0,000 mm 3,5 UV-I 415 W/m 17,7 C 23,7 C 6,4 km/h (2 Bft) 100,00 %
21.07.2016 14:46 23,8 C 68 % 1013,9 hPa 0,0 l/m 3,5 km/h (1 Bft) W 263 2 min 0,000 mm 4,8 UV-I 459 W/m 17,5 C 23,8 C 6,4 km/h (2 Bft) 100,00 %
21.07.2016 14:48 24,1 C 72 % 1013,9 hPa 0,0 l/m 2,4 km/h (1 Bft) W-NW 293 2 min 0,000 mm 5,2 UV-I 610 W/m 18,7 C 24,1 C 4,8 km/h (1 Bft) 97,87 %
21.07.2016 14:50 24,4 C 66 % 1013,8 hPa 0,0 l/m 2,7 km/h (1 Bft) NW 325 2 min 0,000 mm 5,1 UV-I 622 W/m 17,6 C 24,4 C 6,4 km/h (2 Bft) 97,37 %
21.07.2016 14:52 24,8 C 65 % 1013,8 hPa 0,0 l/m 3,2 km/h (1 Bft) W-NW 298 2 min 0,000 mm 5,7 UV-I 832 W/m 17,8 C 24,8 C 6,4 km/h (2 Bft) 97,87 %
21.07.2016 14:54 24,7 C 66 % 1013,7 hPa 0,0 l/m 2,2 km/h (1 Bft) W 267 2 min 0,000 mm 4,9 UV-I 893 W/m 17,9 C 24,7 C 4,8 km/h (1 Bft) 97,87 %
21.07.2016 14:56 24,6 C 64 % 1013,7 hPa 0,0 l/m 3,8 km/h (1 Bft) W-NW 302 2 min 0,000 mm 4,5 UV-I 829 W/m 17,3 C 24,6 C 11,3 km/h (2 Bft) 95,74 %
21.07.2016 14:58 24,6 C 66 % 1013,7 hPa 0,0 l/m 0,8 km/h (0 Bft) N-NW 348 2 min 0,000 mm 4,0 UV-I 519 W/m 17,8 C 24,6 C 3,2 km/h (1 Bft) 96,00 %
21.07.2016 15:00 24,7 C 63 % 1013,6 hPa 0,0 l/m 3,4 km/h (1 Bft) W 265 2 min 0,279 mm 4,4 UV-I 620 W/m 17,2 C 24,7 C 9,7 km/h (2 Bft) 93,62 %
21.07.2016 15:02 24,7 C 66 % 1013,6 hPa 0,0 l/m 5,7 km/h (1 Bft) W 261 2 min 0,000 mm 4,7 UV-I 655 W/m 17,9 C 24,7 C 11,3 km/h (2 Bft) 93,62 %
21.07.2016 15:04 24,8 C 65 % 1013,5 hPa 0,0 l/m 5,9 km/h (2 Bft) SW 220 2 min 0,000 mm 5,0 UV-I 773 W/m 17,8 C 24,8 C 9,7 km/h (2 Bft) 98,00 %
21.07.2016 15:06 24,8 C 65 % 1013,5 hPa 0,0 l/m 3,6 km/h (1 Bft) NW 312 2 min 0,000 mm 4,0 UV-I 789 W/m 17,8 C 24,8 C 6,4 km/h (2 Bft) 93,62 %
21.07.2016 15:08 24,8 C 66 % 1013,5 hPa 0,0 l/m 6,9 km/h (2 Bft) W-SW 240 2 min 0,000 mm 4,1 UV-I 610 W/m 18,0 C 24,7 C 12,9 km/h (3 Bft) 95,74 %
21.07.2016 15:10 24,8 C 65 % 1013,5 hPa 0,0 l/m 7,6 km/h (2 Bft) W 262 2 min 0,000 mm 5,1 UV-I 693 W/m 17,8 C 24,5 C 12,9 km/h (3 Bft) 95,74 %
21.07.2016 15:12 24,9 C 65 % 1013,5 hPa 0,0 l/m 8,0 km/h (2 Bft) W-SW 248 2 min 0,000 mm 5,2 UV-I 811 W/m 17,9 C 24,5 C 16,1 km/h (3 Bft) 95,74 %
21.07.2016 15:14 24,9 C 62 % 1013,5 hPa 0,0 l/m 7,8 km/h (2 Bft) S-SW 213 2 min 0,000 mm 5,2 UV-I 810 W/m 17,1 C 24,5 C 11,3 km/h (2 Bft) 97,22 %
21.07.2016 15:16 25,0 C 62 % 1013,4 hPa 0,0 l/m 7,6 km/h (2 Bft) S-SW 192 2 min 0,000 mm 5,2 UV-I 815 W/m 17,2 C 24,7 C 14,5 km/h (3 Bft) 96,00 %
21.07.2016 15:18 25,2 C 65 % 1013,3 hPa 0,0 l/m 2,4 km/h (1 Bft) N-NO 24 2 min 0,000 mm 5,2 UV-I 816 W/m 18,1 C 25,2 C 6,4 km/h (2 Bft) 95,74 %
21.07.2016 15:20 25,6 C 64 % 1013,3 hPa 0,0 l/m 3,6 km/h (1 Bft) N-NO 32 2 min 0,000 mm 5,1 UV-I 850 W/m 18,3 C 25,6 C 6,4 km/h (2 Bft) 97,87 %
21.07.2016 15:22 25,4 C 62 % 1013,3 hPa 0,0 l/m 4,2 km/h (1 Bft) S-SW 205 2 min 0,000 mm 3,5 UV-I 856 W/m 17,6 C 25,4 C 9,7 km/h (2 Bft) 100,00 %
21.07.2016 15:24 25,3 C 62 % 1013,3 hPa 0,0 l/m 3,7 km/h (1 Bft) SW 234 0 min 0,000 mm 3,3 UV-I 401 W/m 17,5 C 25,3 C 6,4 km/h (2 Bft) 97,87 %
21.07.2016 15:26 25,2 C 61 % 1013,3 hPa 0,0 l/m 7,0 km/h (2 Bft) W-SW 246 0 min 0,000 mm 3,5 UV-I 392 W/m 17,1 C 25,1 C 12,9 km/h (3 Bft) 100,00 %
21.07.2016 15:28 25,0 C 63 % 1013,3 hPa 0,0 l/m 5,4 km/h (1 Bft) W-NW 294 2 min 0,000 mm 3,6 UV-I 456 W/m 17,5 C 25,0 C 12,9 km/h (3 Bft) 100,00 %
21.07.2016 15:30 25,1 C 62 % 1013,2 hPa 0,0 l/m 4,3 km/h (1 Bft) W-NW 289 2 min 0,000 mm 4,0 UV-I 492 W/m 17,3 C 25,1 C 11,3 km/h (2 Bft) 100,00 %
21.07.2016 15:32 25,1 C 63 % 1013,2 hPa 0,0 l/m 6,4 km/h (2 Bft) W 259 2 min 0,000 mm 3,9 UV-I 513 W/m 17,5 C 25,1 C 12,9 km/h (3 Bft) 100,00 %
21.07.2016 15:34 25,3 C 61 % 1013,2 hPa 0,0 l/m 6,4 km/h (2 Bft) W 275 2 min 0,000 mm 4,7 UV-I 566 W/m 17,2 C 25,3 C 14,5 km/h (3 Bft) 97,87 %
21.07.2016 15:36 25,4 C 61 % 1013,3 hPa 0,0 l/m 8,5 km/h (2 Bft) S-SW 208 2 min 0,000 mm 3,1 UV-I 531 W/m 17,3 C 24,9 C 16,1 km/h (3 Bft) 100,00 %
21.07.2016 15:38 25,4 C 60 % 1013,2 hPa 0,0 l/m 8,0 km/h (2 Bft) SW 223 2 min 0,000 mm 3,7 UV-I 585 W/m 17,1 C 25,0 C 11,3 km/h (2 Bft) 100,00 %
21.07.2016 15:40 25,7 C 62 % 1013,1 hPa 0,0 l/m 8,2 km/h (2 Bft) W 280 2 min 0,000 mm 4,7 UV-I 870 W/m 17,9 C 25,3 C 16,1 km/h (3 Bft) 100,00 %
21.07.2016 15:42 25,9 C 59 % 1013,2 hPa 0,0 l/m 9,4 km/h (2 Bft) SW 225 2 min 0,000 mm 4,8 UV-I 859 W/m 17,3 C 25,3 C 17,7 km/h (3 Bft) 96,00 %
21.07.2016 15:44 26,1 C 59 % 1013,2 hPa 0,0 l/m 8,4 km/h (2 Bft) W-SW 250 2 min 0,000 mm 4,6 UV-I 787 W/m 17,4 C 25,7 C 14,5 km/h (3 Bft) 100,00 %
21.07.2016 15:46 26,1 C 57 % 1013,2 hPa 0,0 l/m 8,3 km/h (2 Bft) W-NW 298 2 min 0,000 mm 4,4 UV-I 738 W/m 16,9 C 25,7 C 12,9 km/h (3 Bft) 95,74 %
21.07.2016 15:48 26,0 C 57 % 1013,2 hPa 0,0 l/m 7,9 km/h (2 Bft) W 263 2 min 0,000 mm 4,0 UV-I 679 W/m 16,8 C 25,7 C 12,9 km/h (3 Bft) 97,87 %
21.07.2016 15:50 25,8 C 58 % 1013,1 hPa 0,0 l/m 2,7 km/h (1 Bft) W 275 2 min 0,000 mm 4,0 UV-I 679 W/m 16,9 C 25,8 C 6,4 km/h (2 Bft) 100,00 %
21.07.2016 15:52 25,9 C 59 % 1013,2 hPa 0,0 l/m 7,3 km/h (2 Bft) S-SW 208 2 min 0,000 mm 3,5 UV-I 679 W/m 17,3 C 25,7 C 16,1 km/h (3 Bft) 97,87 %
21.07.2016 15:54 25,9 C 57 % 1013,2 hPa 0,0 l/m 4,5 km/h (1 Bft) NW 313 2 min 0,000 mm 3,4 UV-I 679 W/m 16,7 C 25,9 C 12,9 km/h (3 Bft) 97,87 %
21.07.2016 15:56 26,0 C 58 % 1013,2 hPa 0,0 l/m 6,7 km/h (2 Bft) W-SW 247 2 min 0,000 mm 3,4 UV-I 651 W/m 17,1 C 25,9 C 16,1 km/h (3 Bft) 100,00 %
21.07.2016 15:58 25,9 C 58 % 1013,2 hPa 0,0 l/m 5,7 km/h (1 Bft) SW 223 2 min 0,000 mm 3,8 UV-I 555 W/m 17,0 C 25,9 C 11,3 km/h (2 Bft) 100,00 %
21.07.2016 16:00 26,0 C 56 % 1013,2 hPa 0,0 l/m 6,7 km/h (2 Bft) W-SW 246 2 min 0,000 mm 4,2 UV-I 691 W/m 16,5 C 25,9 C 12,9 km/h (3 Bft) 97,87 %
21.07.2016 16:02 26,1 C 56 % 1013,1 hPa 0,0 l/m 4,0 km/h (1 Bft) W-SW 252 2 min 0,457 mm 3,6 UV-I 847 W/m 16,6 C 26,1 C 6,4 km/h (2 Bft) 100,00 %
21.07.2016 16:04 26,3 C 58 % 1013,1 hPa 0,0 l/m 4,1 km/h (1 Bft) W 281 2 min 0,000 mm 3,9 UV-I 847 W/m 17,4 C 26,3 C 11,3 km/h (2 Bft) 100,00 %
21.07.2016 16:06 26,3 C 54 % 1013,1 hPa 0,0 l/m 10,0 km/h (2 Bft) W-SW 243 2 min 0,000 mm 3,8 UV-I 704 W/m 16,2 C 25,6 C 16,1 km/h (3 Bft) 100,00 %
21.07.2016 16:08 26,2 C 56 % 1013,1 hPa 0,0 l/m 7,8 km/h (2 Bft) SW 234 2 min 0,000 mm 3,9 UV-I 709 W/m 16,7 C 25,9 C 12,9 km/h (3 Bft) 100,00 %
21.07.2016 16:10 26,2 C 54 % 1013,2 hPa 0,0 l/m 5,8 km/h (2 Bft) W-NW 303 2 min 0,000 mm 3,9 UV-I 712 W/m 16,1 C 26,2 C 12,9 km/h (3 Bft) 100,00 %
21.07.2016 16:12 26,3 C 58 % 1013,2 hPa 0,0 l/m 5,7 km/h (1 Bft) W-NW 292 2 min 0,000 mm 3,7 UV-I 683 W/m 17,4 C 26,3 C 12,9 km/h (3 Bft) 100,00 %
21.07.2016 16:14 26,3 C 55 % 1013,2 hPa 0,0 l/m 6,5 km/h (2 Bft) W 273 2 min 0,000 mm 3,6 UV-I 660 W/m 16,5 C 26,3 C 11,3 km/h (2 Bft) 100,00 %
21.07.2016 16:16 26,4 C 56 % 1013,2 hPa 0,0 l/m 5,2 km/h (1 Bft) W-SW 253 2 min 0,000 mm 3,3 UV-I 649 W/m 16,9 C 26,4 C 11,3 km/h (2 Bft) 100,00 %
21.07.2016 16:18 26,4 C 54 % 1013,1 hPa 0,0 l/m 10,4 km/h (2 Bft) W 268 2 min 0,000 mm 3,5 UV-I 642 W/m 16,3 C 25,6 C 16,1 km/h (3 Bft) 98,00 %
21.07.2016 16:20 26,4 C 55 % 1013,1 hPa 0,0 l/m 7,6 km/h (2 Bft) W-SW 241 2 min 0,000 mm 3,4 UV-I 634 W/m 16,6 C 26,2 C 12,9 km/h (3 Bft) 98,00 %
21.07.2016 16:22 26,4 C 53 % 1013,1 hPa 0,0 l/m 6,7 km/h (2 Bft) W 267 2 min 0,000 mm 3,4 UV-I 626 W/m 16,0 C 26,3 C 12,9 km/h (3 Bft) 97,14 %
21.07.2016 16:24 26,4 C 55 % 1013,0 hPa 0,0 l/m 4,7 km/h (1 Bft) W 265 2 min 0,000 mm 3,3 UV-I 620 W/m 16,6 C 26,4 C 11,3 km/h (2 Bft) 97,87 %
21.07.2016 16:26 26,4 C 54 % 1013,0 hPa 0,0 l/m 3,7 km/h (1 Bft) W-NW 282 2 min 0,000 mm 3,2 UV-I 615 W/m 16,3 C 26,4 C 6,4 km/h (2 Bft) 98,00 %
21.07.2016 16:28 26,4 C 55 % 1013,0 hPa 0,0 l/m 5,9 km/h (2 Bft) SW 232 2 min 0,000 mm 3,2 UV-I 609 W/m 16,6 C 26,4 C 12,9 km/h (3 Bft) 97,87 %
21.07.2016 16:30 26,4 C 55 % 1013,0 hPa 0,0 l/m 4,6 km/h (1 Bft) W-NW 294 2 min 0,000 mm 2,5 UV-I 604 W/m 16,6 C 26,4 C 11,3 km/h (2 Bft) 97,87 %
21.07.2016 16:32 26,4 C 53 % 1013,0 hPa 0,0 l/m 4,1 km/h (1 Bft) W-NW 300 2 min 0,000 mm 3,1 UV-I 601 W/m 16,0 C 26,4 C 11,3 km/h (2 Bft) 97,87 %
21.07.2016 16:34 26,4 C 54 % 1013,0 hPa 0,0 l/m 2,0 km/h (1 Bft) S-SO 165 2 min 0,000 mm 3,0 UV-I 592 W/m 16,3 C 26,4 C 6,4 km/h (2 Bft) 100,00 %
21.07.2016 16:36 26,5 C 55 % 1013,0 hPa 0,0 l/m 8,3 km/h (2 Bft) S-SW 194 2 min 0,000 mm 3,0 UV-I 586 W/m 16,7 C 26,1 C 17,7 km/h (3 Bft) 97,87 %
21.07.2016 16:38 26,6 C 55 % 1012,9 hPa 0,0 l/m 4,9 km/h (1 Bft) N-NW 328 2 min 0,000 mm 2,9 UV-I 584 W/m 16,8 C 26,6 C 8,0 km/h (2 Bft) 100,00 %
21.07.2016 16:40 26,6 C 54 % 1012,9 hPa 0,0 l/m 3,6 km/h (1 Bft) N 5 2 min 0,000 mm 2,9 UV-I 580 W/m 16,5 C 26,6 C 6,4 km/h (2 Bft) 100,00 %
21.07.2016 16:42 26,8 C 54 % 1012,9 hPa 0,0 l/m 3,0 km/h (1 Bft) S 180 2 min 0,000 mm 2,8 UV-I 573 W/m 16,7 C 26,8 C 6,4 km/h (2 Bft) 98,00 %
21.07.2016 16:44 26,7 C 53 % 1012,8 hPa 0,0 l/m 4,2 km/h (1 Bft) N 350 2 min 0,000 mm 2,8 UV-I 568 W/m 16,3 C 26,7 C 8,0 km/h (2 Bft) 98,11 %
21.07.2016 16:46 26,7 C 52 % 1012,9 hPa 0,0 l/m 2,6 km/h (1 Bft) NW 321 2 min 0,000 mm 2,7 UV-I 562 W/m 16,0 C 26,7 C 4,8 km/h (1 Bft) 95,74 %
21.07.2016 16:48 26,6 C 54 % 1012,8 hPa 0,0 l/m 4,7 km/h (1 Bft) NO 43 2 min 0,000 mm 2,6 UV-I 555 W/m 16,5 C 26,6 C 9,7 km/h (2 Bft) 93,62 %
21.07.2016 16:50 26,6 C 55 % 1012,8 hPa 0,0 l/m 1,7 km/h (1 Bft) NW 315 2 min 0,000 mm 2,4 UV-I 553 W/m 16,8 C 26,6 C 4,8 km/h (1 Bft) 97,87 %
21.07.2016 16:52 26,7 C 53 % 1012,8 hPa 0,0 l/m 3,3 km/h (1 Bft) SW 226 2 min 0,000 mm 2,6 UV-I 548 W/m 16,3 C 26,7 C 6,4 km/h (2 Bft) 95,74 %
21.07.2016 16:54 26,7 C 51 % 1012,8 hPa 0,0 l/m 4,9 km/h (1 Bft) W-NW 284 2 min 0,000 mm 2,5 UV-I 543 W/m 15,7 C 26,7 C 9,7 km/h (2 Bft) 95,74 %
21.07.2016 16:56 26,7 C 53 % 1012,8 hPa 0,0 l/m 5,3 km/h (1 Bft) NW 319 2 min 0,000 mm 2,5 UV-I 537 W/m 16,3 C 26,7 C 9,7 km/h (2 Bft) 97,87 %
21.07.2016 16:58 26,6 C 52 % 1012,8 hPa 0,0 l/m 4,8 km/h (1 Bft) W-NW 298 2 min 0,000 mm 2,4 UV-I 532 W/m 15,9 C 26,6 C 8,0 km/h (2 Bft) 93,62 %
21.07.2016 17:00 26,6 C 52 % 1012,8 hPa 0,0 l/m 3,2 km/h (1 Bft) SW 221 2 min 0,000 mm 2,4 UV-I 526 W/m 15,9 C 26,6 C 6,4 km/h (2 Bft) 97,87 %
21.07.2016 17:02 26,7 C 53 % 1012,8 hPa 0,0 l/m 4,6 km/h (1 Bft) W 265 2 min 0,432 mm 2,3 UV-I 522 W/m 16,3 C 26,7 C 9,7 km/h (2 Bft) 97,37 %
21.07.2016 17:04 26,7 C 55 % 1012,9 hPa 0,0 l/m 4,1 km/h (1 Bft) W 271 2 min 0,000 mm 2,3 UV-I 519 W/m 16,9 C 26,7 C 6,4 km/h (2 Bft) 97,87 %
21.07.2016 17:06 26,7 C 54 % 1012,9 hPa 0,0 l/m 1,8 km/h (1 Bft) W 271 2 min 0,000 mm 2,2 UV-I 515 W/m 16,6 C 26,7 C 4,8 km/h (1 Bft) 98,04 %
21.07.2016 17:08 26,8 C 57 % 1012,8 hPa 0,0 l/m 3,0 km/h (1 Bft) W 260 2 min 0,000 mm 2,2 UV-I 510 W/m 17,6 C 26,8 C 6,4 km/h (2 Bft) 93,62 %
21.07.2016 17:10 26,9 C 53 % 1012,8 hPa 0,0 l/m 7,9 km/h (2 Bft) W 264 2 min 0,000 mm 1,9 UV-I 505 W/m 16,5 C 26,6 C 12,9 km/h (3 Bft) 97,87 %
21.07.2016 17:12 26,9 C 50 % 1012,8 hPa 0,0 l/m 7,3 km/h (2 Bft) W 270 2 min 0,000 mm 2,1 UV-I 501 W/m 15,6 C 26,7 C 11,3 km/h (2 Bft) 96,00 %
21.07.2016 17:14 26,8 C 54 % 1012,7 hPa 0,0 l/m 4,2 km/h (1 Bft) W-SW 254 2 min 0,000 mm 2,0 UV-I 500 W/m 16,7 C 26,8 C 9,7 km/h (2 Bft) 93,62 %
21.07.2016 17:16 26,8 C 53 % 1012,7 hPa 0,0 l/m 1,5 km/h (1 Bft) W-SW 254 2 min 0,000 mm 1,9 UV-I 440 W/m 16,4 C 26,8 C 3,2 km/h (1 Bft) 100,00 %
21.07.2016 17:18 26,8 C 54 % 1012,7 hPa 0,0 l/m 1,6 km/h (1 Bft) NW 306 2 min 0,000 mm 1,9 UV-I 468 W/m 16,7 C 26,8 C 4,8 km/h (1 Bft) 98,00 %
21.07.2016 17:20 27,0 C 52 % 1012,7 hPa 0,0 l/m 1,3 km/h (1 Bft) W-NW 303 2 min 0,000 mm 1,7 UV-I 459 W/m 16,3 C 27,0 C 3,2 km/h (1 Bft) 95,74 %
21.07.2016 17:22 27,1 C 52 % 1012,7 hPa 0,0 l/m 3,3 km/h (1 Bft) W-NW 298 2 min 0,000 mm 1,8 UV-I 460 W/m 16,4 C 27,1 C 8,0 km/h (2 Bft) 95,74 %
21.07.2016 17:24 27,1 C 50 % 1012,6 hPa 0,0 l/m 4,0 km/h (1 Bft) W 264 2 min 0,000 mm 1,8 UV-I 449 W/m 15,8 C 27,1 C 9,7 km/h (2 Bft) 97,87 %
21.07.2016 17:26 27,0 C 49 % 1012,6 hPa 0,0 l/m 1,8 km/h (1 Bft) W-SW 251 2 min 0,000 mm 1,8 UV-I 441 W/m 15,4 C 27,0 C 4,8 km/h (1 Bft) 97,92 %
21.07.2016 17:28 26,9 C 51 % 1012,6 hPa 0,0 l/m 1,3 km/h (1 Bft) W-NW 289 2 min 0,000 mm 1,7 UV-I 444 W/m 15,9 C 26,9 C 3,2 km/h (1 Bft) 100,00 %
21.07.2016 17:30 26,9 C 51 % 1012,6 hPa 0,0 l/m 5,5 km/h (1 Bft) W-SW 242 2 min 0,000 mm 1,7 UV-I 460 W/m 15,9 C 26,9 C 8,0 km/h (2 Bft) 97,87 %
21.07.2016 17:32 26,9 C 50 % 1012,6 hPa 0,0 l/m 6,6 km/h (2 Bft) W-SW 254 2 min 0,000 mm 1,7 UV-I 447 W/m 15,6 C 26,9 C 12,9 km/h (3 Bft) 100,00 %
21.07.2016 17:34 26,9 C 52 % 1012,6 hPa 0,0 l/m 5,4 km/h (1 Bft) W-NW 295 2 min 0,000 mm 1,6 UV-I 432 W/m 16,2 C 26,9 C 9,7 km/h (2 Bft) 100,00 %
21.07.2016 17:36 27,0 C 54 % 1012,6 hPa 0,0 l/m 3,5 km/h (1 Bft) NW 321 2 min 0,000 mm 1,6 UV-I 437 W/m 16,9 C 27,0 C 6,4 km/h (2 Bft) 100,00 %
21.07.2016 17:38 26,9 C 56 % 1012,6 hPa 0,0 l/m 3,7 km/h (1 Bft) N-NO 21 2 min 0,000 mm 1,6 UV-I 438 W/m 17,4 C 26,9 C 8,0 km/h (2 Bft) 97,87 %
21.07.2016 17:40 26,9 C 55 % 1012,6 hPa 0,0 l/m 2,8 km/h (1 Bft) N 9 2 min 0,000 mm 1,5 UV-I 426 W/m 17,1 C 26,9 C 6,4 km/h (2 Bft) 100,00 %
21.07.2016 17:42 26,8 C 56 % 1012,4 hPa 0,0 l/m 4,5 km/h (1 Bft) N 355 2 min 0,000 mm 1,4 UV-I 409 W/m 17,3 C 26,8 C 8,0 km/h (2 Bft) 100,00 %
21.07.2016 17:44 26,9 C 56 % 1012,5 hPa 0,0 l/m 2,0 km/h (1 Bft) N 5 2 min 0,000 mm 1,3 UV-I 313 W/m 17,4 C 26,9 C 4,8 km/h (1 Bft) 100,00 %
21.07.2016 17:46 26,8 C 56 % 1012,4 hPa 0,0 l/m 2,6 km/h (1 Bft) N 11 2 min 0,000 mm 1,2 UV-I 268 W/m 17,3 C 26,8 C 6,4 km/h (2 Bft) 100,00 %
21.07.2016 17:48 26,8 C 58 % 1012,4 hPa 0,0 l/m 2,9 km/h (1 Bft) NW 317 2 min 0,000 mm 1,1 UV-I 272 W/m 17,8 C 26,8 C 4,8 km/h (1 Bft) 100,00 %
21.07.2016 17:50 26,7 C 58 % 1012,4 hPa 0,0 l/m 3,4 km/h (1 Bft) N 349 2 min 0,000 mm 1,1 UV-I 280 W/m 17,7 C 26,7 C 6,4 km/h (2 Bft) 100,00 %
21.07.2016 17:52 26,6 C 57 % 1012,4 hPa 0,0 l/m 2,0 km/h (1 Bft) N-NW 337 0 min 0,000 mm 1,0 UV-I 235 W/m 17,4 C 26,6 C 4,8 km/h (1 Bft) 100,00 %
21.07.2016 17:54 26,4 C 58 % 1012,3 hPa 0,0 l/m 3,1 km/h (1 Bft) N 9 0 min 0,000 mm 1,0 UV-I 216 W/m 17,5 C 26,4 C 8,0 km/h (2 Bft) 100,00 %
21.07.2016 17:56 26,3 C 59 % 1012,3 hPa 0,0 l/m 2,6 km/h (1 Bft) N-NO 24 0 min 0,000 mm 0,9 UV-I 168 W/m 17,6 C 26,3 C 3,2 km/h (1 Bft) 100,00 %
21.07.2016 17:58 26,1 C 58 % 1012,4 hPa 0,0 l/m 2,4 km/h (1 Bft) N 5 0 min 0,000 mm 0,9 UV-I 159 W/m 17,2 C 26,1 C 4,8 km/h (1 Bft) 97,92 %
21.07.2016 18:00 25,9 C 61 % 1012,3 hPa 0,0 l/m 2,1 km/h (1 Bft) N 355 0 min 0,280 mm 0,8 UV-I 151 W/m 17,8 C 25,9 C 6,4 km/h (2 Bft) 97,87 %
21.07.2016 18:02 25,8 C 60 % 1012,4 hPa 0,0 l/m 3,2 km/h (1 Bft) N-NO 28 0 min 0,000 mm 0,8 UV-I 141 W/m 17,4 C 25,8 C 8,0 km/h (2 Bft) 97,14 %
21.07.2016 18:04 25,7 C 60 % 1012,4 hPa 0,0 l/m 2,5 km/h (1 Bft) NW 319 0 min 0,000 mm 0,7 UV-I 140 W/m 17,3 C 25,7 C 6,4 km/h (2 Bft) 97,87 %
21.07.2016 18:06 25,7 C 61 % 1012,3 hPa 0,0 l/m 2,0 km/h (1 Bft) N 355 0 min 0,000 mm 0,7 UV-I 154 W/m 17,6 C 25,7 C 4,8 km/h (1 Bft) 100,00 %
21.07.2016 18:08 25,6 C 61 % 1012,3 hPa 0,0 l/m 2,8 km/h (1 Bft) N-NO 28 0 min 0,000 mm 0,7 UV-I 152 W/m 17,5 C 25,6 C 6,4 km/h (2 Bft) 95,74 %
21.07.2016 18:10 25,6 C 62 % 1012,3 hPa 0,0 l/m 2,3 km/h (1 Bft) N-NO 25 0 min 0,000 mm 0,7 UV-I 161 W/m 17,8 C 25,6 C 6,4 km/h (2 Bft) 100,00 %
21.07.2016 18:12 25,6 C 61 % 1012,3 hPa 0,0 l/m 2,0 km/h (1 Bft) N-NO 21 0 min 0,000 mm 0,7 UV-I 167 W/m 17,5 C 25,6 C 4,8 km/h (1 Bft) 100,00 %
21.07.2016 18:14 25,6 C 62 % 1012,3 hPa 0,0 l/m 1,6 km/h (1 Bft) N-NO 17 0 min 0,000 mm 0,7 UV-I 156 W/m 17,8 C 25,6 C 6,4 km/h (2 Bft) 98,00 %
21.07.2016 18:16 25,6 C 61 % 1012,4 hPa 0,0 l/m 0,9 km/h (0 Bft) N 5 0 min 0,000 mm 0,7 UV-I 158 W/m 17,5 C 25,6 C 1,6 km/h (1 Bft) 97,87 %
21.07.2016 18:18 25,5 C 62 % 1012,4 hPa 0,0 l/m 0,7 km/h (0 Bft) N 360 0 min 0,000 mm 0,7 UV-I 157 W/m 17,7 C 25,5 C 1,6 km/h (1 Bft) 97,87 %
21.07.2016 18:20 25,4 C 62 % 1012,4 hPa 0,0 l/m 3,0 km/h (1 Bft) NO 38 0 min 0,000 mm 0,6 UV-I 152 W/m 17,6 C 25,4 C 8,0 km/h (2 Bft) 97,87 %
21.07.2016 18:22 25,4 C 63 % 1012,3 hPa 0,0 l/m 5,4 km/h (1 Bft) N 9 0 min 0,000 mm 0,6 UV-I 143 W/m 17,8 C 25,4 C 9,7 km/h (2 Bft) 97,87 %
21.07.2016 18:24 25,3 C 64 % 1012,3 hPa 0,0 l/m 4,5 km/h (1 Bft) N-NO 25 0 min 0,000 mm 0,6 UV-I 137 W/m 18,0 C 25,3 C 6,4 km/h (2 Bft) 100,00 %
21.07.2016 18:26 25,2 C 64 % 1012,3 hPa 0,0 l/m 2,3 km/h (1 Bft) N-NO 14 0 min 0,000 mm 0,6 UV-I 132 W/m 17,9 C 25,2 C 4,8 km/h (1 Bft) 97,87 %
21.07.2016 18:28 25,2 C 65 % 1012,3 hPa 0,0 l/m 1,6 km/h (1 Bft) N 360 0 min 0,000 mm 0,5 UV-I 127 W/m 18,1 C 25,2 C 4,8 km/h (1 Bft) 100,00 %
21.07.2016 18:30 25,1 C 65 % 1012,4 hPa 0,0 l/m 0,4 km/h (0 Bft) N 355 0 min 0,000 mm 0,5 UV-I 121 W/m 18,0 C 25,1 C 1,6 km/h (1 Bft) 100,00 %
21.07.2016 18:32 25,1 C 64 % 1012,4 hPa 0,0 l/m 0,1 km/h (0 Bft) N 355 0 min 0,000 mm 0,5 UV-I 115 W/m 17,8 C 25,1 C 1,6 km/h (1 Bft) 100,00 %
21.07.2016 18:34 25,1 C 64 % 1012,4 hPa 0,0 l/m 1,0 km/h (0 Bft) N 5 0 min 0,000 mm 0,4 UV-I 110 W/m 17,8 C 25,1 C 1,6 km/h (1 Bft) 100,00 %
21.07.2016 18:36 25,0 C 65 % 1012,4 hPa 0,0 l/m 0,9 km/h (0 Bft) N 5 0 min 0,000 mm 0,0 UV-I 102 W/m 17,9 C 25,0 C 1,6 km/h (1 Bft) 100,00 %
21.07.2016 18:38 24,9 C 65 % 1012,4 hPa 0,0 l/m 1,0 km/h (0 Bft) N 5 0 min 0,000 mm 0,0 UV-I 92 W/m 17,9 C 24,9 C 3,2 km/h (1 Bft) 97,87 %
21.07.2016 18:40 24,9 C 65 % 1012,5 hPa 0,0 l/m 0,8 km/h (0 Bft) N 355 0 min 0,000 mm 0,0 UV-I 86 W/m 17,9 C 24,9 C 1,6 km/h (1 Bft) 95,74 %
21.07.2016 18:42 24,8 C 66 % 1012,5 hPa 0,0 l/m 0,9 km/h (0 Bft) N-NW 347 0 min 0,000 mm 0,0 UV-I 82 W/m 18,0 C 24,8 C 3,2 km/h (1 Bft) 98,00 %
21.07.2016 18:44 24,8 C 66 % 1012,5 hPa 0,0 l/m 0,7 km/h (0 Bft) N-NW 348 0 min 0,000 mm 0,0 UV-I 75 W/m 18,0 C 24,8 C 3,2 km/h (1 Bft) 95,74 %
21.07.2016 18:46 24,7 C 66 % 1012,6 hPa 0,0 l/m 0,4 km/h (0 Bft) N 349 0 min 0,000 mm 0,0 UV-I 66 W/m 17,9 C 24,7 C 1,6 km/h (1 Bft) 97,87 %
21.07.2016 18:48 24,7 C 66 % 1012,6 hPa 0,0 l/m 0,7 km/h (0 Bft) N-NO 17 0 min 0,000 mm 0,0 UV-I 58 W/m 17,9 C 24,7 C 3,2 km/h (1 Bft) 95,74 %
21.07.2016 18:50 24,6 C 67 % 1012,6 hPa 0,0 l/m 0,5 km/h (0 Bft) N 9 0 min 0,000 mm 0,0 UV-I 52 W/m 18,1 C 24,6 C 3,2 km/h (1 Bft) 95,74 %
21.07.2016 18:52 24,5 C 67 % 1012,6 hPa 0,0 l/m 1,1 km/h (1 Bft) N 9 0 min 0,000 mm 0,0 UV-I 48 W/m 18,0 C 24,5 C 3,2 km/h (1 Bft) 95,74 %
21.07.2016 18:54 24,5 C 67 % 1012,6 hPa 0,0 l/m 0,6 km/h (0 Bft) N 9 0 min 0,000 mm 0,0 UV-I 47 W/m 18,0 C 24,5 C 1,6 km/h (1 Bft) 93,62 %
21.07.2016 18:56 24,4 C 67 % 1012,7 hPa 0,0 l/m 0,4 km/h (0 Bft) N 9 0 min 0,000 mm 0,0 UV-I 45 W/m 17,9 C 24,4 C 1,6 km/h (1 Bft) 95,74 %
21.07.2016 18:58 24,3 C 68 % 1012,6 hPa 0,0 l/m 1,0 km/h (0 Bft) N 355 0 min 0,000 mm 0,0 UV-I 44 W/m 18,0 C 24,3 C 3,2 km/h (1 Bft) 95,74 %
21.07.2016 19:00 24,2 C 69 % 1012,7 hPa 0,0 l/m 1,3 km/h (1 Bft) N-NW 342 0 min 0,076 mm 0,0 UV-I 41 W/m 18,1 C 24,2 C 3,2 km/h (1 Bft) 95,74 %
21.07.2016 19:02 24,2 C 68 % 1012,8 hPa 0,0 l/m 2,4 km/h (1 Bft) N-NW 335 0 min 0,000 mm 0,0 UV-I 36 W/m 17,9 C 24,2 C 6,4 km/h (2 Bft) 95,74 %
21.07.2016 19:04 24,1 C 68 % 1012,9 hPa 0,0 l/m 2,6 km/h (1 Bft) N-NW 340 0 min 0,000 mm 0,0 UV-I 30 W/m 17,8 C 24,1 C 6,4 km/h (2 Bft) 95,74 %
21.07.2016 19:06 24,1 C 68 % 1012,9 hPa 0,0 l/m 1,4 km/h (1 Bft) N-NW 339 0 min 0,000 mm 0,0 UV-I 26 W/m 17,8 C 24,1 C 3,2 km/h (1 Bft) 95,74 %
21.07.2016 19:08 24,1 C 68 % 1013,0 hPa 0,0 l/m 0,3 km/h (0 Bft) N-NW 339 0 min 0,000 mm 0,0 UV-I 26 W/m 17,8 C 24,1 C 1,6 km/h (1 Bft) 97,87 %
21.07.2016 19:10 24,1 C 69 % 1013,0 hPa 0,0 l/m 0,3 km/h (0 Bft) N-NW 339 0 min 0,000 mm 0,0 UV-I 26 W/m 18,0 C 24,1 C 1,6 km/h (1 Bft) 100,00 %
21.07.2016 19:12 24,1 C 70 % 1013,1 hPa 0,0 l/m 0,4 km/h (0 Bft) N-NW 339 0 min 0,000 mm 0,0 UV-I 30 W/m 18,3 C 24,1 C 1,6 km/h (1 Bft) 100,00 %
21.07.2016 19:14 24,0 C 70 % 1013,1 hPa 0,0 l/m 0,7 km/h (0 Bft) N-NW 339 0 min 0,000 mm 0,0 UV-I 38 W/m 18,2 C 24,0 C 1,6 km/h (1 Bft) 100,00 %
21.07.2016 19:16 23,9 C 71 % 1013,0 hPa 0,0 l/m 0,2 km/h (0 Bft) N-NW 339 0 min 0,000 mm 0,0 UV-I 45 W/m 18,3 C 23,9 C 1,6 km/h (1 Bft) 97,92 %
21.07.2016 19:18 23,8 C 74 % 1012,9 hPa 0,0 l/m 0,0 km/h (0 Bft) N-NW 339 0 min 0,000 mm 0,0 UV-I 46 W/m 18,9 C 23,8 C 0,0 km/h (0 Bft) 100,00 %
21.07.2016 19:20 23,6 C 76 % 1012,7 hPa 0,0 l/m 3,4 km/h (1 Bft) N-NO 17 0 min 0,000 mm 0,0 UV-I 42 W/m 19,1 C 23,6 C 6,4 km/h (2 Bft) 100,00 %
21.07.2016 19:22 23,3 C 76 % 1012,4 hPa 0,0 l/m 8,0 km/h (2 Bft) N-NO 28 0 min 0,000 mm 0,0 UV-I 37 W/m 18,8 C 22,8 C 11,3 km/h (2 Bft) 100,00 %
21.07.2016 19:24 23,2 C 76 % 1012,4 hPa 0,0 l/m 6,8 km/h (2 Bft) N-NO 32 0 min 0,000 mm 0,0 UV-I 32 W/m 18,7 C 23,1 C 9,7 km/h (2 Bft) 98,00 %
21.07.2016 19:26 23,0 C 77 % 1012,6 hPa 0,0 l/m 4,2 km/h (1 Bft) NO 35 0 min 0,000 mm 0,0 UV-I 28 W/m 18,7 C 23,0 C 6,4 km/h (2 Bft) 97,87 %
21.07.2016 19:28 23,0 C 78 % 1012,6 hPa 0,0 l/m 2,3 km/h (1 Bft) NO 35 0 min 0,000 mm 0,0 UV-I 26 W/m 18,9 C 23,0 C 3,2 km/h (1 Bft) 100,00 %
21.07.2016 19:30 22,9 C 79 % 1012,6 hPa 0,0 l/m 2,6 km/h (1 Bft) NO 46 0 min 0,000 mm 0,0 UV-I 28 W/m 19,1 C 22,9 C 4,8 km/h (1 Bft) 95,74 %
21.07.2016 19:32 22,9 C 81 % 1012,5 hPa 0,0 l/m 4,4 km/h (1 Bft) O 81 0 min 0,000 mm 0,0 UV-I 30 W/m 19,5 C 22,9 C 6,4 km/h (2 Bft) 97,87 %
21.07.2016 19:34 22,7 C 83 % 1012,5 hPa 0,0 l/m 3,5 km/h (1 Bft) O-NO 74 0 min 0,000 mm 0,0 UV-I 33 W/m 19,7 C 22,7 C 4,8 km/h (1 Bft) 97,87 %
21.07.2016 19:36 22,6 C 83 % 1012,6 hPa 0,0 l/m 3,7 km/h (1 Bft) O-NO 66 0 min 0,000 mm 0,0 UV-I 34 W/m 19,6 C 22,6 C 4,8 km/h (1 Bft) 97,87 %
21.07.2016 19:38 22,5 C 82 % 1012,5 hPa 0,0 l/m 2,8 km/h (1 Bft) O-NO 66 0 min 0,000 mm 0,0 UV-I 35 W/m 19,3 C 22,5 C 3,2 km/h (1 Bft) 98,00 %
21.07.2016 19:40 22,6 C 83 % 1012,6 hPa 0,0 l/m 2,1 km/h (1 Bft) O-NO 66 0 min 0,000 mm 0,0 UV-I 33 W/m 19,6 C 22,6 C 3,2 km/h (1 Bft) 100,00 %
21.07.2016 19:42 22,6 C 83 % 1012,6 hPa 0,0 l/m 1,0 km/h (0 Bft) O-NO 66 0 min 0,000 mm 0,0 UV-I 32 W/m 19,6 C 22,6 C 1,6 km/h (1 Bft) 97,87 %
21.07.2016 19:44 22,5 C 82 % 1012,6 hPa 0,0 l/m 2,0 km/h (1 Bft) O-NO 66 0 min 0,000 mm 0,0 UV-I 30 W/m 19,3 C 22,5 C 3,2 km/h (1 Bft) 97,37 %
21.07.2016 19:46 22,5 C 82 % 1012,6 hPa 0,0 l/m 1,0 km/h (0 Bft) O-NO 66 0 min 0,000 mm 0,0 UV-I 29 W/m 19,3 C 22,5 C 3,2 km/h (1 Bft) 100,00 %
21.07.2016 19:48 22,5 C 83 % 1012,8 hPa 0,2 l/m 0,0 km/h (0 Bft) O-NO 66 0 min 0,000 mm 0,0 UV-I 28 W/m 19,5 C 22,5 C 0,0 km/h (0 Bft) 100,00 %
21.07.2016 19:50 22,4 C 83 % 1012,7 hPa 0,0 l/m 0,0 km/h (0 Bft) O-NO 66 0 min 0,000 mm 0,0 UV-I 28 W/m 19,4 C 22,4 C 0,0 km/h (0 Bft) 98,11 %
21.07.2016 19:52 22,4 C 84 % 1012,6 hPa 0,0 l/m 0,0 km/h (0 Bft) O-NO 66 0 min 0,000 mm 0,0 UV-I 27 W/m 19,6 C 22,4 C 0,0 km/h (0 Bft) 100,00 %
21.07.2016 19:54 22,3 C 84 % 1012,6 hPa 0,0 l/m 0,2 km/h (0 Bft) O-NO 66 0 min 0,000 mm 0,0 UV-I 24 W/m 19,5 C 22,3 C 1,6 km/h (1 Bft) 100,00 %
21.07.2016 19:56 22,2 C 85 % 1012,7 hPa 0,0 l/m 0,3 km/h (0 Bft) NO 36 0 min 0,000 mm 0,0 UV-I 20 W/m 19,6 C 22,2 C 1,6 km/h (1 Bft) 97,87 %
21.07.2016 19:58 22,1 C 85 % 1012,8 hPa 0,0 l/m 1,8 km/h (1 Bft) N 11 0 min 0,000 mm 0,0 UV-I 18 W/m 19,5 C 22,1 C 3,2 km/h (1 Bft) 100,00 %
21.07.2016 20:00 22,0 C 86 % 1012,9 hPa 0,0 l/m 0,5 km/h (0 Bft) N 11 0 min 0,000 mm 0,0 UV-I 18 W/m 19,5 C 22,0 C 1,6 km/h (1 Bft) 97,87 %
21.07.2016 20:02 21,9 C 85 % 1012,9 hPa 0,0 l/m 0,7 km/h (0 Bft) N 5 0 min 0,025 mm 0,0 UV-I 18 W/m 19,3 C 21,9 C 3,2 km/h (1 Bft) 100,00 %
21.07.2016 20:04 21,8 C 85 % 1012,9 hPa 0,0 l/m 0,9 km/h (0 Bft) N 5 0 min 0,000 mm 0,0 UV-I 18 W/m 19,2 C 21,8 C 3,2 km/h (1 Bft) 95,74 %
21.07.2016 20:06 21,8 C 84 % 1012,9 hPa 0,0 l/m 1,4 km/h (1 Bft) N 5 0 min 0,000 mm 0,0 UV-I 19 W/m 19,0 C 21,8 C 3,2 km/h (1 Bft) 97,87 %
21.07.2016 20:08 21,8 C 85 % 1012,9 hPa 0,0 l/m 0,9 km/h (0 Bft) N 5 0 min 0,000 mm 0,0 UV-I 19 W/m 19,2 C 21,8 C 1,6 km/h (1 Bft) 100,00 %
21.07.2016 20:10 21,8 C 84 % 1012,8 hPa 0,0 l/m 0,5 km/h (0 Bft) N 5 0 min 0,000 mm 0,0 UV-I 19 W/m 19,0 C 21,8 C 1,6 km/h (1 Bft) 97,87 %
21.07.2016 20:12 21,8 C 84 % 1012,8 hPa 0,0 l/m 0,1 km/h (0 Bft) N 5 0 min 0,000 mm 0,0 UV-I 18 W/m 19,0 C 21,8 C 1,6 km/h (1 Bft) 95,74 %
21.07.2016 20:14 21,9 C 84 % 1012,8 hPa 0,0 l/m 0,8 km/h (0 Bft) N 5 0 min 0,000 mm 0,0 UV-I 17 W/m 19,1 C 21,9 C 3,2 km/h (1 Bft) 100,00 %
21.07.2016 20:16 21,9 C 84 % 1012,8 hPa 0,0 l/m 0,0 km/h (0 Bft) N 5 0 min 0,000 mm 0,0 UV-I 16 W/m 19,1 C 21,9 C 0,0 km/h (0 Bft) 95,74 %
21.07.2016 20:18 22,0 C 83 % 1012,8 hPa 0,0 l/m 0,0 km/h (0 Bft) N 5 0 min 0,000 mm 0,0 UV-I 15 W/m 19,0 C 22,0 C 1,6 km/h (1 Bft) 94,29 %
21.07.2016 20:20 22,1 C 84 % 1012,7 hPa 0,0 l/m 0,4 km/h (0 Bft) N 5 0 min 0,000 mm 0,0 UV-I 14 W/m 19,3 C 22,1 C 1,6 km/h (1 Bft) 96,00 %
21.07.2016 20:22 22,1 C 85 % 1012,8 hPa 0,0 l/m 0,0 km/h (0 Bft) N 5 0 min 0,000 mm 0,0 UV-I 14 W/m 19,5 C 22,1 C 0,0 km/h (0 Bft) 97,87 %
21.07.2016 20:24 22,1 C 85 % 1012,8 hPa 0,0 l/m 0,9 km/h (0 Bft) N 5 0 min 0,000 mm 0,0 UV-I 16 W/m 19,5 C 22,1 C 1,6 km/h (1 Bft) 100,00 %
21.07.2016 20:26 22,0 C 86 % 1012,8 hPa 0,0 l/m 1,5 km/h (1 Bft) O 94 0 min 0,000 mm 0,0 UV-I 17 W/m 19,5 C 22,0 C 3,2 km/h (1 Bft) 97,87 %
21.07.2016 20:28 22,0 C 86 % 1012,8 hPa 0,0 l/m 1,3 km/h (1 Bft) O 94 0 min 0,000 mm 0,0 UV-I 20 W/m 19,5 C 22,0 C 3,2 km/h (1 Bft) 98,00 %
21.07.2016 20:30 21,9 C 86 % 1012,8 hPa 0,0 l/m 2,7 km/h (1 Bft) O 94 2 min 0,000 mm 0,0 UV-I 25 W/m 19,4 C 21,9 C 3,2 km/h (1 Bft) 97,87 %
21.07.2016 20:32 21,9 C 85 % 1012,8 hPa 0,0 l/m 1,8 km/h (1 Bft) O 94 2 min 0,000 mm 0,0 UV-I 32 W/m 19,3 C 21,9 C 3,2 km/h (1 Bft) 98,00 %
21.07.2016 20:34 21,9 C 86 % 1012,9 hPa 0,0 l/m 1,8 km/h (1 Bft) O 94 2 min 0,000 mm 0,0 UV-I 41 W/m 19,4 C 21,9 C 3,2 km/h (1 Bft) 95,74 %
21.07.2016 20:36 21,9 C 85 % 1012,9 hPa 0,0 l/m 2,2 km/h (1 Bft) O 95 2 min 0,000 mm 0,0 UV-I 50 W/m 19,3 C 21,9 C 3,2 km/h (1 Bft) 95,83 %
21.07.2016 20:38 21,9 C 86 % 1012,9 hPa 0,0 l/m 2,3 km/h (1 Bft) O 95 2 min 0,000 mm 0,0 UV-I 53 W/m 19,4 C 21,9 C 3,2 km/h (1 Bft) 97,87 %
21.07.2016 20:40 21,9 C 87 % 1012,9 hPa 0,0 l/m 1,8 km/h (1 Bft) O-SO 109 2 min 0,000 mm 0,0 UV-I 52 W/m 19,6 C 21,9 C 3,2 km/h (1 Bft) 97,87 %
21.07.2016 20:42 21,8 C 87 % 1012,9 hPa 0,0 l/m 2,0 km/h (1 Bft) O-SO 109 0 min 0,000 mm 0,0 UV-I 47 W/m 19,5 C 21,8 C 3,2 km/h (1 Bft) 95,74 %
21.07.2016 20:44 21,7 C 87 % 1012,9 hPa 0,0 l/m 2,4 km/h (1 Bft) O-SO 109 0 min 0,000 mm 0,0 UV-I 40 W/m 19,4 C 21,7 C 3,2 km/h (1 Bft) 97,87 %
21.07.2016 20:46 21,6 C 87 % 1012,9 hPa 0,0 l/m 1,4 km/h (1 Bft) O-SO 109 0 min 0,000 mm 0,0 UV-I 33 W/m 19,3 C 21,6 C 3,2 km/h (1 Bft) 97,14 %
21.07.2016 20:48 21,5 C 86 % 1012,8 hPa 0,0 l/m 1,1 km/h (1 Bft) O-SO 109 0 min 0,000 mm 0,0 UV-I 26 W/m 19,1 C 21,5 C 3,2 km/h (1 Bft) 95,74 %
21.07.2016 20:50 21,6 C 86 % 1012,9 hPa 0,0 l/m 1,7 km/h (1 Bft) O-SO 109 0 min 0,000 mm 0,0 UV-I 21 W/m 19,2 C 21,6 C 3,2 km/h (1 Bft) 97,87 %
21.07.2016 20:52 21,6 C 84 % 1012,9 hPa 0,0 l/m 1,1 km/h (1 Bft) O-SO 109 0 min 0,000 mm 0,0 UV-I 17 W/m 18,8 C 21,6 C 3,2 km/h (1 Bft) 97,87 %
21.07.2016 20:54 21,7 C 83 % 1012,9 hPa 0,0 l/m 0,1 km/h (0 Bft) O-SO 109 0 min 0,000 mm 0,0 UV-I 13 W/m 18,7 C 21,7 C 1,6 km/h (1 Bft) 97,87 %
21.07.2016 20:56 21,7 C 82 % 1012,9 hPa 0,0 l/m 0,0 km/h (0 Bft) O-SO 109 0 min 0,000 mm 0,0 UV-I 11 W/m 18,5 C 21,7 C 0,0 km/h (0 Bft) 97,87 %
21.07.2016 20:58 21,7 C 83 % 1012,9 hPa 0,0 l/m 0,6 km/h (0 Bft) O-SO 109 0 min 0,000 mm 0,0 UV-I 8 W/m 18,7 C 21,7 C 3,2 km/h (1 Bft) 97,87 %
21.07.2016 21:00 21,7 C 84 % 1012,9 hPa 0,0 l/m 0,5 km/h (0 Bft) O-SO 109 0 min 0,000 mm 0,0 UV-I 5 W/m 18,9 C 21,7 C 1,6 km/h (1 Bft) 95,74 %
21.07.2016 21:02 21,7 C 84 % 1013,0 hPa 0,0 l/m 1,5 km/h (1 Bft) O-SO 109 0 min 0,026 mm 0,0 UV-I 0 W/m 18,9 C 21,7 C 3,2 km/h (1 Bft) 91,84 %
21.07.2016 21:04 21,6 C 84 % 1013,0 hPa 0,0 l/m 1,1 km/h (1 Bft) O-SO 109 0 min 0,000 mm 0,0 UV-I 0 W/m 18,8 C 21,6 C 1,6 km/h (1 Bft) 98,00 %
21.07.2016 21:06 21,5 C 85 % 1013,0 hPa 0,0 l/m 1,0 km/h (0 Bft) O-SO 109 0 min 0,000 mm 0,0 UV-I 0 W/m 18,9 C 21,5 C 3,2 km/h (1 Bft) 97,87 %
21.07.2016 21:08 21,4 C 84 % 1013,0 hPa 0,0 l/m 0,9 km/h (0 Bft) O-SO 109 0 min 0,000 mm 0,0 UV-I 0 W/m 18,6 C 21,4 C 1,6 km/h (1 Bft) 95,74 %
21.07.2016 21:10 21,4 C 83 % 1013,0 hPa 0,0 l/m 1,6 km/h (1 Bft) O-SO 109 0 min 0,000 mm 0,0 UV-I 0 W/m 18,4 C 21,4 C 3,2 km/h (1 Bft) 100,00 %
21.07.2016 21:12 21,4 C 83 % 1013,1 hPa 0,0 l/m 1,6 km/h (1 Bft) O-SO 109 0 min 0,000 mm 0,0 UV-I 0 W/m 18,4 C 21,4 C 3,2 km/h (1 Bft) 100,00 %
21.07.2016 21:14 21,4 C 84 % 1013,1 hPa 0,0 l/m 2,0 km/h (1 Bft) O-SO 109 0 min 0,000 mm 0,0 UV-I 0 W/m 18,6 C 21,4 C 3,2 km/h (1 Bft) 97,37 %
21.07.2016 21:16 21,3 C 85 % 1013,1 hPa 0,0 l/m 2,9 km/h (1 Bft) O-SO 109 0 min 0,000 mm 0,0 UV-I 0 W/m 18,7 C 21,3 C 4,8 km/h (1 Bft) 100,00 %
21.07.2016 21:18 21,2 C 86 % 1013,1 hPa 0,0 l/m 0,7 km/h (0 Bft) O-SO 109 0 min 0,000 mm 0,0 UV-I 0 W/m 18,8 C 21,2 C 1,6 km/h (1 Bft) 100,00 %
21.07.2016 21:20 21,1 C 86 % 1013,2 hPa 0,0 l/m 2,6 km/h (1 Bft) O-SO 109 0 min 0,000 mm 0,0 UV-I 0 W/m 18,7 C 21,1 C 4,8 km/h (1 Bft) 97,87 %
21.07.2016 21:22 21,1 C 86 % 1013,2 hPa 0,0 l/m 2,4 km/h (1 Bft) O-SO 112 0 min 0,000 mm 0,0 UV-I 0 W/m 18,7 C 21,1 C 4,8 km/h (1 Bft) 95,74 %
21.07.2016 21:24 21,0 C 86 % 1013,2 hPa 0,0 l/m 3,0 km/h (1 Bft) SO 129 0 min 0,000 mm 0,0 UV-I 0 W/m 18,6 C 21,0 C 4,8 km/h (1 Bft) 100,00 %
21.07.2016 21:26 20,9 C 86 % 1013,1 hPa 0,0 l/m 3,7 km/h (1 Bft) SO 137 0 min 0,000 mm 0,0 UV-I 0 W/m 18,5 C 20,9 C 4,8 km/h (1 Bft) 100,00 %
21.07.2016 21:28 20,9 C 86 % 1013,1 hPa 0,0 l/m 3,7 km/h (1 Bft) S 186 0 min 0,000 mm 0,0 UV-I 0 W/m 18,5 C 20,9 C 6,4 km/h (2 Bft) 100,00 %
21.07.2016 21:30 20,9 C 87 % 1013,1 hPa 0,0 l/m 3,2 km/h (1 Bft) S 186 0 min 0,000 mm 0,0 UV-I 0 W/m 18,7 C 20,9 C 4,8 km/h (1 Bft) 100,00 %
21.07.2016 21:32 20,8 C 87 % 1013,2 hPa 0,0 l/m 1,8 km/h (1 Bft) S 186 0 min 0,000 mm 0,0 UV-I 0 W/m 18,6 C 20,8 C 3,2 km/h (1 Bft) 100,00 %
21.07.2016 21:34 20,8 C 87 % 1013,2 hPa 0,0 l/m 1,9 km/h (1 Bft) S 186 0 min 0,000 mm 0,0 UV-I 0 W/m 18,6 C 20,8 C 3,2 km/h (1 Bft) 100,00 %
21.07.2016 21:36 20,8 C 87 % 1013,2 hPa 0,0 l/m 1,9 km/h (1 Bft) S 187 0 min 0,000 mm 0,0 UV-I 0 W/m 18,6 C 20,8 C 4,8 km/h (1 Bft) 100,00 %
21.07.2016 21:38 20,7 C 88 % 1013,3 hPa 0,0 l/m 2,0 km/h (1 Bft) S 187 0 min 0,000 mm 0,0 UV-I 0 W/m 18,6 C 20,7 C 3,2 km/h (1 Bft) 97,87 %
21.07.2016 21:40 20,6 C 88 % 1013,3 hPa 0,0 l/m 3,0 km/h (1 Bft) S 179 0 min 0,000 mm 0,0 UV-I 0 W/m 18,5 C 20,6 C 6,4 km/h (2 Bft) 100,00 %
21.07.2016 21:42 20,5 C 88 % 1013,2 hPa 0,0 l/m 1,2 km/h (1 Bft) S 180 0 min 0,000 mm 0,0 UV-I 0 W/m 18,4 C 20,5 C 3,2 km/h (1 Bft) 100,00 %
21.07.2016 21:44 20,4 C 88 % 1013,1 hPa 0,0 l/m 1,5 km/h (1 Bft) S 178 0 min 0,000 mm 0,0 UV-I 0 W/m 18,3 C 20,4 C 4,8 km/h (1 Bft) 97,87 %
21.07.2016 21:46 20,3 C 88 % 1013,1 hPa 0,0 l/m 1,3 km/h (1 Bft) S 178 0 min 0,000 mm 0,0 UV-I 0 W/m 18,2 C 20,3 C 3,2 km/h (1 Bft) 97,87 %
21.07.2016 21:48 20,3 C 88 % 1013,1 hPa 0,0 l/m 1,2 km/h (1 Bft) S 178 0 min 0,000 mm 0,0 UV-I 0 W/m 18,2 C 20,3 C 3,2 km/h (1 Bft) 98,00 %
21.07.2016 21:50 20,2 C 88 % 1013,1 hPa 0,0 l/m 1,8 km/h (1 Bft) S 177 0 min 0,000 mm 0,0 UV-I 0 W/m 18,1 C 20,2 C 3,2 km/h (1 Bft) 100,00 %
21.07.2016 21:52 20,2 C 88 % 1013,1 hPa 0,0 l/m 1,2 km/h (1 Bft) S 177 0 min 0,000 mm 0,0 UV-I 0 W/m 18,1 C 20,2 C 3,2 km/h (1 Bft) 95,83 %
21.07.2016 21:54 20,1 C 88 % 1013,0 hPa 0,0 l/m 1,1 km/h (1 Bft) S 177 0 min 0,000 mm 0,0 UV-I 0 W/m 18,0 C 20,1 C 3,2 km/h (1 Bft) 100,00 %
21.07.2016 21:56 20,0 C 88 % 1013,1 hPa 0,0 l/m 1,6 km/h (1 Bft) S 177 0 min 0,000 mm 0,0 UV-I 0 W/m 17,9 C 20,0 C 3,2 km/h (1 Bft) 100,00 %
21.07.2016 21:58 20,0 C 89 % 1013,1 hPa 0,0 l/m 1,1 km/h (1 Bft) S 177 0 min 0,000 mm 0,0 UV-I 0 W/m 18,1 C 20,0 C 3,2 km/h (1 Bft) 100,00 %
21.07.2016 22:00 20,0 C 89 % 1013,1 hPa 0,0 l/m 3,1 km/h (1 Bft) S 177 0 min 0,000 mm 0,0 UV-I 0 W/m 18,1 C 20,0 C 6,4 km/h (2 Bft) 100,00 %
21.07.2016 22:02 20,1 C 89 % 1013,1 hPa 0,0 l/m 2,6 km/h (1 Bft) S 177 0 min 0,000 mm 0,0 UV-I 0 W/m 18,2 C 20,1 C 4,8 km/h (1 Bft) 97,87 %
21.07.2016 22:04 20,1 C 89 % 1013,1 hPa 0,0 l/m 2,7 km/h (1 Bft) S 177 0 min 0,000 mm 0,0 UV-I 0 W/m 18,2 C 20,1 C 4,8 km/h (1 Bft) 100,00 %
21.07.2016 22:06 20,2 C 88 % 1013,0 hPa 0,0 l/m 3,1 km/h (1 Bft) S 177 0 min 0,000 mm 0,0 UV-I 0 W/m 18,1 C 20,2 C 4,8 km/h (1 Bft) 100,00 %
21.07.2016 22:08 20,2 C 88 % 1013,1 hPa 0,0 l/m 3,0 km/h (1 Bft) S 177 0 min 0,000 mm 0,0 UV-I 0 W/m 18,1 C 20,2 C 4,8 km/h (1 Bft) 100,00 %
21.07.2016 22:10 20,2 C 88 % 1013,1 hPa 0,0 l/m 2,5 km/h (1 Bft) S 177 0 min 0,000 mm 0,0 UV-I 0 W/m 18,1 C 20,2 C 4,8 km/h (1 Bft) 95,74 %
21.07.2016 22:12 20,3 C 87 % 1013,1 hPa 0,0 l/m 1,3 km/h (1 Bft) S 177 0 min 0,000 mm 0,0 UV-I 0 W/m 18,1 C 20,3 C 3,2 km/h (1 Bft) 100,00 %
21.07.2016 22:14 20,3 C 87 % 1013,2 hPa 0,0 l/m 1,6 km/h (1 Bft) S 177 0 min 0,000 mm 0,0 UV-I 0 W/m 18,1 C 20,3 C 3,2 km/h (1 Bft) 97,37 %
21.07.2016 22:16 20,2 C 88 % 1013,3 hPa 0,0 l/m 3,4 km/h (1 Bft) S 177 0 min 0,000 mm 0,0 UV-I 0 W/m 18,1 C 20,2 C 4,8 km/h (1 Bft) 100,00 %
21.07.2016 22:18 20,2 C 88 % 1013,3 hPa 0,0 l/m 1,9 km/h (1 Bft) S 177 0 min 0,000 mm 0,0 UV-I 0 W/m 18,1 C 20,2 C 3,2 km/h (1 Bft) 100,00 %
21.07.2016 22:20 20,1 C 88 % 1013,3 hPa 0,0 l/m 2,8 km/h (1 Bft) S 177 0 min 0,000 mm 0,0 UV-I 0 W/m 18,0 C 20,1 C 4,8 km/h (1 Bft) 100,00 %
21.07.2016 22:22 20,1 C 88 % 1013,3 hPa 0,0 l/m 0,8 km/h (0 Bft) S 177 0 min 0,000 mm 0,0 UV-I 0 W/m 18,0 C 20,1 C 3,2 km/h (1 Bft) 100,00 %
21.07.2016 22:24 20,0 C 88 % 1013,3 hPa 0,0 l/m 1,4 km/h (1 Bft) S 177 0 min 0,000 mm 0,0 UV-I 0 W/m 17,9 C 20,0 C 3,2 km/h (1 Bft) 100,00 %
21.07.2016 22:26 19,9 C 89 % 1013,3 hPa 0,0 l/m 2,8 km/h (1 Bft) S 177 0 min 0,000 mm 0,0 UV-I 0 W/m 18,0 C 19,9 C 3,2 km/h (1 Bft) 100,00 %
21.07.2016 22:28 19,9 C 89 % 1013,3 hPa 0,0 l/m 1,2 km/h (1 Bft) S 177 0 min 0,000 mm 0,0 UV-I 0 W/m 18,0 C 19,9 C 4,8 km/h (1 Bft) 97,92 %
21.07.2016 22:30 19,8 C 89 % 1013,3 hPa 0,0 l/m 0,6 km/h (0 Bft) S 177 0 min 0,000 mm 0,0 UV-I 0 W/m 17,9 C 19,8 C 3,2 km/h (1 Bft) 97,87 %
21.07.2016 22:32 19,8 C 89 % 1013,3 hPa 0,0 l/m 0,1 km/h (0 Bft) S 177 0 min 0,000 mm 0,0 UV-I 0 W/m 17,9 C 19,8 C 1,6 km/h (1 Bft) 97,92 %
21.07.2016 22:34 19,7 C 89 % 1013,3 hPa 0,0 l/m 0,8 km/h (0 Bft) S 177 0 min 0,000 mm 0,0 UV-I 0 W/m 17,8 C 19,7 C 3,2 km/h (1 Bft) 97,87 %
21.07.2016 22:36 19,7 C 89 % 1013,3 hPa 0,0 l/m 1,3 km/h (1 Bft) S 177 0 min 0,000 mm 0,0 UV-I 0 W/m 17,8 C 19,7 C 3,2 km/h (1 Bft) 97,87 %
21.07.2016 22:38 19,7 C 89 % 1013,3 hPa 0,0 l/m 1,5 km/h (1 Bft) S 177 0 min 0,000 mm 0,0 UV-I 0 W/m 17,8 C 19,7 C 4,8 km/h (1 Bft) 95,74 %
21.07.2016 22:40 19,7 C 89 % 1013,3 hPa 0,0 l/m 2,8 km/h (1 Bft) S 177 0 min 0,000 mm 0,0 UV-I 0 W/m 17,8 C 19,7 C 4,8 km/h (1 Bft) 97,87 %
21.07.2016 22:42 19,7 C 89 % 1013,4 hPa 0,0 l/m 3,2 km/h (1 Bft) S 177 0 min 0,000 mm 0,0 UV-I 0 W/m 17,8 C 19,7 C 4,8 km/h (1 Bft) 97,87 %
21.07.2016 22:44 19,7 C 89 % 1013,4 hPa 0,0 l/m 4,0 km/h (1 Bft) S 178 0 min 0,000 mm 0,0 UV-I 0 W/m 17,8 C 19,7 C 4,8 km/h (1 Bft) 95,74 %
21.07.2016 22:46 19,7 C 89 % 1013,4 hPa 0,0 l/m 4,8 km/h (1 Bft) S 178 0 min 0,000 mm 0,0 UV-I 0 W/m 17,8 C 19,7 C 6,4 km/h (2 Bft) 95,74 %
21.07.2016 22:48 19,7 C 89 % 1013,4 hPa 0,0 l/m 4,7 km/h (1 Bft) S 180 0 min 0,000 mm 0,0 UV-I 0 W/m 17,8 C 19,7 C 6,4 km/h (2 Bft) 94,74 %
21.07.2016 22:50 19,7 C 89 % 1013,4 hPa 0,0 l/m 3,1 km/h (1 Bft) S 180 0 min 0,000 mm 0,0 UV-I 0 W/m 17,8 C 19,7 C 4,8 km/h (1 Bft) 95,74 %
21.07.2016 22:52 19,7 C 89 % 1013,5 hPa 0,0 l/m 2,5 km/h (1 Bft) S 180 0 min 0,000 mm 0,0 UV-I 0 W/m 17,8 C 19,7 C 4,8 km/h (1 Bft) 97,87 %
21.07.2016 22:54 19,6 C 89 % 1013,5 hPa 0,0 l/m 2,0 km/h (1 Bft) S 180 0 min 0,000 mm 0,0 UV-I 0 W/m 17,7 C 19,6 C 3,2 km/h (1 Bft) 95,74 %
21.07.2016 22:56 19,6 C 89 % 1013,6 hPa 0,0 l/m 3,3 km/h (1 Bft) S 180 0 min 0,000 mm 0,0 UV-I 0 W/m 17,7 C 19,6 C 4,8 km/h (1 Bft) 93,62 %
21.07.2016 22:58 19,6 C 90 % 1013,6 hPa 0,0 l/m 3,5 km/h (1 Bft) S 180 0 min 0,000 mm 0,0 UV-I 0 W/m 17,9 C 19,6 C 4,8 km/h (1 Bft) 97,87 %
21.07.2016 23:00 19,5 C 90 % 1013,7 hPa 0,0 l/m 3,7 km/h (1 Bft) S 180 0 min 0,000 mm 0,0 UV-I 0 W/m 17,8 C 19,5 C 4,8 km/h (1 Bft) 96,00 %
21.07.2016 23:02 19,4 C 90 % 1013,7 hPa 0,0 l/m 2,5 km/h (1 Bft) S 180 0 min 0,000 mm 0,0 UV-I 0 W/m 17,7 C 19,4 C 3,2 km/h (1 Bft) 96,00 %
21.07.2016 23:04 19,4 C 91 % 1013,7 hPa 0,0 l/m 2,2 km/h (1 Bft) S 180 0 min 0,000 mm 0,0 UV-I 0 W/m 17,9 C 19,4 C 4,8 km/h (1 Bft) 97,87 %
21.07.2016 23:06 19,4 C 90 % 1013,7 hPa 0,0 l/m 1,5 km/h (1 Bft) S 180 0 min 0,000 mm 0,0 UV-I 0 W/m 17,7 C 19,4 C 3,2 km/h (1 Bft) 100,00 %
21.07.2016 23:08 19,4 C 90 % 1013,8 hPa 0,0 l/m 1,6 km/h (1 Bft) S 180 0 min 0,000 mm 0,0 UV-I 0 W/m 17,7 C 19,4 C 3,2 km/h (1 Bft) 100,00 %
21.07.2016 23:10 19,6 C 90 % 1013,7 hPa 0,0 l/m 1,3 km/h (1 Bft) S 180 0 min 0,000 mm 0,0 UV-I 0 W/m 17,9 C 19,6 C 3,2 km/h (1 Bft) 97,87 %
21.07.2016 23:12 19,6 C 89 % 1013,7 hPa 0,0 l/m 0,5 km/h (0 Bft) S 180 0 min 0,000 mm 0,0 UV-I 0 W/m 17,7 C 19,6 C 3,2 km/h (1 Bft) 97,92 %
21.07.2016 23:14 19,7 C 89 % 1013,6 hPa 0,0 l/m 0,7 km/h (0 Bft) S 180 0 min 0,000 mm 0,0 UV-I 0 W/m 17,8 C 19,7 C 1,6 km/h (1 Bft) 100,00 %
21.07.2016 23:16 19,7 C 89 % 1013,7 hPa 0,0 l/m 0,9 km/h (0 Bft) S 180 0 min 0,000 mm 0,0 UV-I 0 W/m 17,8 C 19,7 C 1,6 km/h (1 Bft) 100,00 %
21.07.2016 23:18 19,7 C 89 % 1013,6 hPa 0,0 l/m 0,8 km/h (0 Bft) S 180 0 min 0,000 mm 0,0 UV-I 0 W/m 17,8 C 19,7 C 1,6 km/h (1 Bft) 98,00 %
21.07.2016 23:20 19,6 C 89 % 1013,6 hPa 0,0 l/m 0,7 km/h (0 Bft) S 180 0 min 0,000 mm 0,0 UV-I 0 W/m 17,7 C 19,6 C 1,6 km/h (1 Bft) 97,87 %
21.07.2016 23:22 19,6 C 89 % 1013,6 hPa 0,0 l/m 1,0 km/h (0 Bft) S 180 0 min 0,000 mm 0,0 UV-I 0 W/m 17,7 C 19,6 C 1,6 km/h (1 Bft) 100,00 %
21.07.2016 23:24 19,6 C 89 % 1013,7 hPa 0,0 l/m 1,3 km/h (1 Bft) S 180 0 min 0,000 mm 0,0 UV-I 0 W/m 17,7 C 19,6 C 3,2 km/h (1 Bft) 100,00 %
21.07.2016 23:26 19,5 C 89 % 1013,8 hPa 0,0 l/m 1,1 km/h (1 Bft) S 180 0 min 0,000 mm 0,0 UV-I 0 W/m 17,6 C 19,5 C 1,6 km/h (1 Bft) 100,00 %
21.07.2016 23:28 19,5 C 90 % 1013,7 hPa 0,0 l/m 1,1 km/h (1 Bft) S 180 0 min 0,000 mm 0,0 UV-I 0 W/m 17,8 C 19,5 C 3,2 km/h (1 Bft) 100,00 %
21.07.2016 23:30 19,6 C 89 % 1013,7 hPa 0,0 l/m 1,2 km/h (1 Bft) S 180 0 min 0,000 mm 0,0 UV-I 0 W/m 17,7 C 19,6 C 3,2 km/h (1 Bft) 100,00 %
21.07.2016 23:32 19,6 C 89 % 1013,7 hPa 0,0 l/m 1,6 km/h (1 Bft) S 180 0 min 0,000 mm 0,0 UV-I 0 W/m 17,7 C 19,6 C 3,2 km/h (1 Bft) 100,00 %
21.07.2016 23:34 19,5 C 89 % 1013,7 hPa 0,0 l/m 1,9 km/h (1 Bft) S 180 0 min 0,000 mm 0,0 UV-I 0 W/m 17,6 C 19,5 C 3,2 km/h (1 Bft) 100,00 %
21.07.2016 23:36 19,4 C 89 % 1013,8 hPa 0,0 l/m 2,3 km/h (1 Bft) S 180 0 min 0,000 mm 0,0 UV-I 0 W/m 17,5 C 19,4 C 3,2 km/h (1 Bft) 100,00 %
21.07.2016 23:38 19,4 C 90 % 1013,9 hPa 0,0 l/m 2,4 km/h (1 Bft) S 180 0 min 0,000 mm 0,0 UV-I 0 W/m 17,7 C 19,4 C 3,2 km/h (1 Bft) 97,87 %
21.07.2016 23:40 19,3 C 90 % 1013,9 hPa 0,0 l/m 2,3 km/h (1 Bft) S 180 0 min 0,000 mm 0,0 UV-I 0 W/m 17,6 C 19,3 C 3,2 km/h (1 Bft) 95,74 %
21.07.2016 23:42 19,3 C 90 % 1013,9 hPa 0,0 l/m 2,6 km/h (1 Bft) S 180 0 min 0,000 mm 0,0 UV-I 0 W/m 17,6 C 19,3 C 3,2 km/h (1 Bft) 97,87 %
21.07.2016 23:44 19,2 C 90 % 1013,8 hPa 0,0 l/m 1,8 km/h (1 Bft) S 180 0 min 0,000 mm 0,0 UV-I 0 W/m 17,5 C 19,2 C 3,2 km/h (1 Bft) 100,00 %
21.07.2016 23:46 19,1 C 90 % 1013,8 hPa 0,0 l/m 1,8 km/h (1 Bft) S 180 0 min 0,000 mm 0,0 UV-I 0 W/m 17,4 C 19,1 C 3,2 km/h (1 Bft) 97,87 %
21.07.2016 23:48 19,1 C 91 % 1013,8 hPa 0,0 l/m 1,1 km/h (1 Bft) S 180 0 min 0,000 mm 0,0 UV-I 0 W/m 17,6 C 19,1 C 1,6 km/h (1 Bft) 97,87 %
21.07.2016 23:50 19,1 C 91 % 1013,8 hPa 0,0 l/m 1,2 km/h (1 Bft) S 180 0 min 0,000 mm 0,0 UV-I 0 W/m 17,6 C 19,1 C 1,6 km/h (1 Bft) 100,00 %
21.07.2016 23:52 19,1 C 91 % 1013,9 hPa 0,0 l/m 1,1 km/h (1 Bft) S 180 0 min 0,000 mm 0,0 UV-I 0 W/m 17,6 C 19,1 C 1,6 km/h (1 Bft) 100,00 %
21.07.2016 23:54 19,0 C 91 % 1013,8 hPa 0,0 l/m 1,6 km/h (1 Bft) S 180 0 min 0,000 mm 0,0 UV-I 0 W/m 17,5 C 19,0 C 3,2 km/h (1 Bft) 97,87 %
21.07.2016 23:56 19,0 C 91 % 1013,8 hPa 0,0 l/m 1,2 km/h (1 Bft) S 180 0 min 0,000 mm 0,0 UV-I 0 W/m 17,5 C 19,0 C 1,6 km/h (1 Bft) 98,00 %
21.07.2016 23:58 19,0 C 91 % 1013,9 hPa 0,0 l/m 1,3 km/h (1 Bft) S 180 0 min 0,000 mm 0,0 UV-I 0 W/m 17,5 C 19,0 C 1,6 km/h (1 Bft) 100,00 %
_ Min-Zeit 05:10 17:26 17:54 - 00:00 - - - - - - 05:10 05:10 00:00 05:24
Minimum _ 14,3 C 49 % 1012,3 hPa - 0,0 km/h (0 Bft) - - - - - - 13,0 C 14,3 C 0,0 km/h (0 Bft) 91,49 %
_ Max-Zeit 17:22 05:14 12:00 19:48 12:10 - - 05:38 13:00 12:20 12:16 19:34 17:22 11:40 00:00
Maximum _ 27,1 C 93 % 1015,5 hPa 0,2 l/m 29,5 km/h
W-SW (5 Bft)
- - 2 min 0,483 mm 7,5 UV-I 1141 W/m 19,7 C 27,1 C 43,5 km/h
S-SO (6 Bft)
100,00 %
Durchschnitt _ 20,8 C 78 % 1013,7 hPa #0,2 l/m 4,3 km/h (1 Bft) S - #7:42 h #3,658 mm 2,9 UV-I 336 W/m 16,5 C 20,5 C 7,4 km/h (2 Bft) 98,29 %